Time,TemperatureF,DewpointF,PressureIn,WindDirection,WindDirectionDegrees,WindSpeedMPH,WindSpeedGustMPH,Humidity,HourlyPrecipIn,Conditions,Clouds,dailyrainin,SoftwareType,DateUTC
2013-05-12 00:00:00,68.5,56.3,29.59,East,81,0.0,0.0,65,0.00,,---,0.00,VWS V13.01,2013-05-12 07:00:00,
2013-05-12 00:01:00,68.5,56.3,29.59,East,81,0.0,0.0,65,0.00,,---,0.00,VWS V13.01,2013-05-12 07:01:00,
2013-05-12 00:02:00,68.5,56.3,29.62,East,81,0.0,0.0,65,0.00,,---,0.00,VWS V13.01,2013-05-12 07:02:00,
2013-05-12 00:05:00,68.4,56.2,29.62,East,81,0.0,0.0,65,0.00,,---,0.00,VWS V13.01,2013-05-12 07:05:00,
2013-05-12 00:06:00,68.4,56.6,29.62,East,81,0.0,0.0,66,0.00,,---,0.00,VWS V13.01,2013-05-12 07:06:00,
2013-05-12 00:07:00,68.2,56.4,29.62,East,81,0.0,0.0,66,0.00,,---,0.00,VWS V13.01,2013-05-12 07:07:00,
2013-05-12 00:10:00,67.6,56.3,29.62,East,81,0.0,0.0,67,0.00,,---,0.00,VWS V13.01,2013-05-12 07:10:00,
2013-05-12 00:11:00,67.6,56.3,29.62,East,81,0.0,0.0,67,0.00,,---,0.00,VWS V13.01,2013-05-12 07:11:00,
2013-05-12 00:12:00,67.6,55.9,29.62,East,81,0.0,0.0,66,0.00,,---,0.00,VWS V13.01,2013-05-12 07:12:00,
2013-05-12 00:15:00,67.6,55.9,29.62,East,81,0.0,0.0,66,0.00,,---,0.00,VWS V13.01,2013-05-12 07:15:00,
2013-05-12 00:16:00,67.6,55.9,29.62,East,81,0.0,0.0,66,0.00,,---,0.00,VWS V13.01,2013-05-12 07:16:00,
2013-05-12 00:17:00,67.6,55.9,29.62,East,81,0.0,0.0,66,0.00,,---,0.00,VWS V13.01,2013-05-12 07:17:00,
2013-05-12 00:21:00,67.6,55.9,29.62,East,81,0.0,0.0,66,0.00,,---,0.00,VWS V13.01,2013-05-12 07:21:00,
2013-05-12 00:22:00,67.5,55.7,29.62,East,81,0.0,0.0,66,0.00,,---,0.00,VWS V13.01,2013-05-12 07:22:00,
2013-05-12 00:23:00,67.5,55.7,29.62,East,81,0.0,0.0,66,0.00,,---,0.00,VWS V13.01,2013-05-12 07:23:00,
2013-05-12 00:26:00,67.5,55.7,29.62,East,81,0.0,0.0,66,0.00,,---,0.00,VWS V13.01,2013-05-12 07:26:00,
2013-05-12 00:28:00,67.5,55.7,29.62,East,81,0.0,0.0,66,0.00,,---,0.00,VWS V13.01,2013-05-12 07:28:00,
2013-05-12 00:31:00,67.3,55.5,29.62,East,81,0.0,0.0,66,0.00,,---,0.00,VWS V13.01,2013-05-12 07:31:00,
2013-05-12 00:33:00,67.3,55.5,29.62,East,81,0.0,0.0,66,0.00,,---,0.00,VWS V13.01,2013-05-12 07:33:00,
2013-05-12 00:36:00,67.1,55.4,29.62,East,81,0.0,0.0,66,0.00,,---,0.00,VWS V13.01,2013-05-12 07:36:00,
2013-05-12 00:38:00,66.7,55.5,29.62,East,81,0.0,0.0,67,0.00,,---,0.00,VWS V13.01,2013-05-12 07:38:00,
2013-05-12 00:41:00,66.6,55.3,29.62,East,81,0.0,0.0,67,0.00,,---,0.00,VWS V13.01,2013-05-12 07:41:00,
2013-05-12 00:43:00,66.4,55.1,29.62,East,81,0.0,0.0,67,0.00,,---,0.00,VWS V13.01,2013-05-12 07:43:00,
2013-05-12 00:46:00,66.2,54.9,29.62,East,81,0.0,0.0,67,0.00,,---,0.00,VWS V13.01,2013-05-12 07:46:00,
2013-05-12 00:47:00,66.2,55.3,29.62,East,81,0.0,0.0,68,0.00,,---,0.00,VWS V13.01,2013-05-12 07:47:00,
2013-05-12 00:48:00,66.2,55.3,29.62,East,81,0.0,0.0,68,0.00,,---,0.00,VWS V13.01,2013-05-12 07:48:00,
2013-05-12 00:49:00,66.2,55.3,29.62,East,81,2.2,2.2,68,0.00,,---,0.00,VWS V13.01,2013-05-12 07:49:00,
2013-05-12 00:51:00,66.0,55.2,29.62,WNW,300,0.0,0.0,68,0.00,,---,0.00,VWS V13.01,2013-05-12 07:51:00,
2013-05-12 00:52:00,66.0,55.2,29.62,WNW,300,0.0,0.0,68,0.00,,---,0.00,VWS V13.01,2013-05-12 07:52:00,
2013-05-12 00:53:00,65.8,55.4,29.62,WNW,300,0.0,0.0,69,0.00,,---,0.00,VWS V13.01,2013-05-12 07:53:00,
2013-05-12 00:54:00,65.7,55.2,29.62,WNW,300,0.0,0.0,69,0.00,,---,0.00,VWS V13.01,2013-05-12 07:54:00,
2013-05-12 00:57:00,65.8,55.4,29.62,WNW,300,0.0,0.0,69,0.00,,---,0.00,VWS V13.01,2013-05-12 07:57:00,
2013-05-12 00:59:00,66.0,55.6,29.62,WNW,300,0.0,0.0,69,0.00,,---,0.00,VWS V13.01,2013-05-12 07:59:00,
2013-05-12 01:02:00,66.0,55.2,29.62,WNW,300,0.0,0.0,68,0.00,,---,0.00,VWS V13.01,2013-05-12 08:02:00,
2013-05-12 01:04:00,66.0,55.6,29.62,West,261,0.0,0.0,69,0.00,,---,0.00,VWS V13.01,2013-05-12 08:04:00,
2013-05-12 01:07:00,65.7,55.2,29.62,WSW,255,0.0,0.0,69,0.00,,---,0.00,VWS V13.01,2013-05-12 08:07:00,
2013-05-12 01:09:00,65.5,55.0,29.62,WSW,255,0.0,0.0,69,0.00,,---,0.00,VWS V13.01,2013-05-12 08:09:00,
2013-05-12 01:10:00,65.5,55.0,29.62,WSW,255,0.0,0.0,69,0.00,,---,0.00,VWS V13.01,2013-05-12 08:10:00,
2013-05-12 01:12:00,65.7,55.2,29.62,WSW,255,0.0,0.0,69,0.00,,---,0.00,VWS V13.01,2013-05-12 08:12:00,
2013-05-12 01:14:00,65.7,55.2,29.62,WSW,255,0.0,0.0,69,0.00,,---,0.00,VWS V13.01,2013-05-12 08:14:00,
2013-05-12 01:15:00,65.7,55.2,29.62,WSW,255,0.0,0.0,69,0.00,,---,0.00,VWS V13.01,2013-05-12 08:15:00,
2013-05-12 01:17:00,65.7,55.2,29.62,WSW,255,0.0,0.0,69,0.00,,---,0.00,VWS V13.01,2013-05-12 08:17:00,
2013-05-12 01:19:00,65.1,54.7,29.62,WSW,254,0.0,0.0,69,0.00,,---,0.00,VWS V13.01,2013-05-12 08:19:00,
2013-05-12 01:20:00,65.1,54.7,29.62,WSW,255,0.0,0.0,69,0.00,,---,0.00,VWS V13.01,2013-05-12 08:20:00,
2013-05-12 01:22:00,65.1,54.7,29.62,WSW,254,0.0,0.0,69,0.00,,---,0.00,VWS V13.01,2013-05-12 08:22:00,
2013-05-12 01:23:00,65.1,54.7,29.62,WSW,254,0.0,0.0,69,0.00,,---,0.00,VWS V13.01,2013-05-12 08:23:00,
2013-05-12 01:24:00,65.1,55.1,29.62,WSW,255,0.0,0.0,70,0.00,,---,0.00,VWS V13.01,2013-05-12 08:24:00,
2013-05-12 01:25:00,65.1,55.1,29.62,WSW,254,0.0,0.0,70,0.00,,---,0.00,VWS V13.01,2013-05-12 08:25:00,
2013-05-12 01:28:00,64.9,54.9,29.62,WSW,254,0.0,0.0,70,0.00,,---,0.00,VWS V13.01,2013-05-12 08:28:00,
2013-05-12 01:30:00,65.1,55.1,29.62,WSW,255,0.0,0.0,70,0.00,,---,0.00,VWS V13.01,2013-05-12 08:30:00,
2013-05-12 01:31:00,65.1,55.1,29.62,WSW,255,0.0,0.0,70,0.00,,---,0.00,VWS V13.01,2013-05-12 08:31:00,
2013-05-12 01:33:00,65.1,55.1,29.59,WSW,255,0.0,0.0,70,0.00,,---,0.00,VWS V13.01,2013-05-12 08:33:00,
2013-05-12 01:35:00,65.1,55.1,29.59,WSW,254,0.0,0.0,70,0.00,,---,0.00,VWS V13.01,2013-05-12 08:35:00,
2013-05-12 01:36:00,64.9,54.9,29.59,WSW,255,0.0,0.0,70,0.00,,---,0.00,VWS V13.01,2013-05-12 08:36:00,
2013-05-12 01:38:00,64.8,54.8,29.59,WSW,255,0.0,0.0,70,0.00,,---,0.00,VWS V13.01,2013-05-12 08:38:00,
2013-05-12 01:40:00,64.8,54.8,29.59,WSW,255,0.0,0.0,70,0.00,,---,0.00,VWS V13.01,2013-05-12 08:40:00,
2013-05-12 01:41:00,64.8,54.8,29.59,WSW,255,0.0,0.0,70,0.00,,---,0.00,VWS V13.01,2013-05-12 08:41:00,
2013-05-12 01:43:00,64.8,54.8,29.59,WSW,255,0.0,0.0,70,0.00,,---,0.00,VWS V13.01,2013-05-12 08:43:00,
2013-05-12 01:46:00,64.9,54.9,29.59,WSW,254,0.0,0.0,70,0.00,,---,0.00,VWS V13.01,2013-05-12 08:46:00,
2013-05-12 01:47:00,64.9,54.9,29.59,WSW,255,0.0,0.0,70,0.00,,---,0.00,VWS V13.01,2013-05-12 08:47:00,
2013-05-12 01:48:00,64.9,54.9,29.59,WSW,255,0.0,0.0,70,0.00,,---,0.00,VWS V13.01,2013-05-12 08:48:00,
2013-05-12 01:51:00,64.8,54.8,29.59,West,270,2.7,3.1,70,0.00,,---,0.00,VWS V13.01,2013-05-12 08:51:00,
2013-05-12 01:52:00,64.4,54.8,29.59,West,270,0.0,2.7,71,0.00,,---,0.00,VWS V13.01,2013-05-12 08:52:00,
2013-05-12 01:53:00,64.4,54.8,29.59,West,270,0.0,0.0,71,0.00,,---,0.00,VWS V13.01,2013-05-12 08:53:00,
2013-05-12 01:56:00,64.2,54.6,29.59,West,273,0.0,2.2,71,0.00,,---,0.00,VWS V13.01,2013-05-12 08:56:00,
2013-05-12 01:57:00,64.2,54.6,29.59,West,273,0.0,0.0,71,0.00,,---,0.00,VWS V13.01,2013-05-12 08:57:00,
2013-05-12 01:58:00,64.2,54.6,29.59,West,273,0.0,0.0,71,0.00,,---,0.00,VWS V13.01,2013-05-12 08:58:00,
2013-05-12 01:59:00,64.4,54.8,29.59,West,273,0.0,0.0,71,0.00,,---,0.00,VWS V13.01,2013-05-12 08:59:00,
2013-05-12 02:01:00,64.4,54.8,29.62,West,273,0.0,0.0,71,0.00,,---,0.00,VWS V13.01,2013-05-12 09:01:00,
2013-05-12 02:02:00,64.4,54.8,29.62,South,180,2.7,2.7,71,0.00,,---,0.00,VWS V13.01,2013-05-12 09:02:00,
2013-05-12 02:03:00,64.4,54.8,29.62,West,271,2.2,2.7,71,0.00,,---,0.00,VWS V13.01,2013-05-12 09:03:00,
2013-05-12 02:04:00,64.4,54.8,29.62,SW,218,2.2,2.2,71,0.00,,---,0.00,VWS V13.01,2013-05-12 09:04:00,
2013-05-12 02:06:00,64.2,55.0,29.62,West,280,0.0,0.0,72,0.00,,---,0.00,VWS V13.01,2013-05-12 09:06:00,
2013-05-12 02:07:00,64.0,54.8,29.62,North,353,0.0,0.0,72,0.00,,---,0.00,VWS V13.01,2013-05-12 09:07:00,
2013-05-12 02:08:00,64.0,54.8,29.62,West,278,4.0,7.6,72,0.00,,---,0.00,VWS V13.01,2013-05-12 09:08:00,
2013-05-12 02:09:00,64.0,55.2,29.62,SW,221,4.0,4.0,73,0.00,,---,0.00,VWS V13.01,2013-05-12 09:09:00,
2013-05-12 02:10:00,64.0,55.2,29.62,SSE,151,2.2,4.0,73,0.00,,---,0.00,VWS V13.01,2013-05-12 09:10:00,
2013-05-12 02:11:00,64.2,55.4,29.62,WNW,293,4.0,5.4,73,0.00,,---,0.00,VWS V13.01,2013-05-12 09:11:00,
2013-05-12 02:12:00,64.2,55.8,29.62,West,274,0.0,6.3,74,0.00,,---,0.00,VWS V13.01,2013-05-12 09:12:00,
2013-05-12 02:13:00,64.2,55.8,29.62,West,270,3.6,3.6,74,0.00,,---,0.00,VWS V13.01,2013-05-12 09:13:00,
2013-05-12 02:14:00,64.4,55.9,29.62,WNW,294,4.0,4.9,74,0.00,,---,0.00,VWS V13.01,2013-05-12 09:14:00,
2013-05-12 02:15:00,64.4,55.9,29.62,WSW,246,2.2,2.2,74,0.00,,---,0.00,VWS V13.01,2013-05-12 09:15:00,
2013-05-12 02:16:00,64.4,55.9,29.62,SW,221,3.6,3.6,74,0.00,,---,0.00,VWS V13.01,2013-05-12 09:16:00,
2013-05-12 02:17:00,64.4,55.9,29.62,WNW,293,3.6,4.9,74,0.00,,---,0.00,VWS V13.01,2013-05-12 09:17:00,
2013-05-12 02:18:00,64.4,55.6,29.62,SW,219,4.0,5.4,73,0.00,,---,0.00,VWS V13.01,2013-05-12 09:18:00,
2013-05-12 02:19:00,64.4,55.6,29.62,SSE,165,3.1,4.0,73,0.00,,---,0.00,VWS V13.01,2013-05-12 09:19:00,
2013-05-12 02:20:00,64.4,55.6,29.62,SW,226,2.7,2.7,73,0.00,,---,0.00,VWS V13.01,2013-05-12 09:20:00,
2013-05-12 02:21:00,64.6,56.1,29.62,West,280,2.7,2.7,74,0.00,,---,0.00,VWS V13.01,2013-05-12 09:21:00,
2013-05-12 02:23:00,64.6,56.1,29.62,WSW,256,0.0,3.1,74,0.00,,---,0.00,VWS V13.01,2013-05-12 09:23:00,
2013-05-12 02:24:00,64.6,56.1,29.62,WSW,256,0.0,0.0,74,0.00,,---,0.00,VWS V13.01,2013-05-12 09:24:00,
2013-05-12 02:25:00,64.6,55.7,29.62,SW,229,3.6,3.6,73,0.00,,---,0.00,VWS V13.01,2013-05-12 09:25:00,
2013-05-12 02:26:00,64.6,55.7,29.62,SW,233,4.0,5.8,73,0.00,,---,0.00,VWS V13.01,2013-05-12 09:26:00,
2013-05-12 02:28:00,64.6,56.1,29.62,NNW,328,3.6,4.9,74,0.00,,---,0.00,VWS V13.01,2013-05-12 09:28:00,
2013-05-12 02:29:00,64.6,56.1,29.62,NNW,328,3.1,4.0,74,0.00,,---,0.00,VWS V13.01,2013-05-12 09:29:00,
2013-05-12 02:30:00,64.6,56.1,29.62,WNW,284,0.0,0.0,74,0.00,,---,0.00,VWS V13.01,2013-05-12 09:30:00,
2013-05-12 02:31:00,64.8,56.3,29.62,West,271,6.3,8.1,74,0.00,,---,0.00,VWS V13.01,2013-05-12 09:31:00,
2013-05-12 02:33:00,64.6,56.1,29.62,SSW,192,0.0,6.3,74,0.00,,---,0.00,VWS V13.01,2013-05-12 09:33:00,
2013-05-12 02:34:00,64.8,56.3,29.62,SSW,197,4.0,4.0,74,0.00,,---,0.00,VWS V13.01,2013-05-12 09:34:00,
2013-05-12 02:35:00,64.8,56.3,29.62,SSW,211,4.0,5.4,74,0.00,,---,0.00,VWS V13.01,2013-05-12 09:35:00,
2013-05-12 02:36:00,64.8,56.3,29.62,West,271,0.0,3.6,74,0.00,,---,0.00,VWS V13.01,2013-05-12 09:36:00,
2013-05-12 02:38:00,64.8,56.7,29.62,WSW,241,0.0,0.0,75,0.00,,---,0.00,VWS V13.01,2013-05-12 09:38:00,
2013-05-12 02:39:00,64.8,56.3,29.62,WSW,241,0.0,0.0,74,0.00,,---,0.00,VWS V13.01,2013-05-12 09:39:00,
2013-05-12 02:40:00,64.8,56.3,29.62,WSW,241,0.0,0.0,74,0.00,,---,0.00,VWS V13.01,2013-05-12 09:40:00,
2013-05-12 02:42:00,64.8,56.3,29.62,WSW,256,0.0,0.0,74,0.00,,---,0.00,VWS V13.01,2013-05-12 09:42:00,
2013-05-12 02:43:00,64.8,56.3,29.62,SSW,212,2.2,2.2,74,0.00,,---,0.00,VWS V13.01,2013-05-12 09:43:00,
2013-05-12 02:44:00,64.8,56.3,29.62,SSW,211,0.0,0.0,74,0.00,,---,0.00,VWS V13.01,2013-05-12 09:44:00,
2013-05-12 02:45:00,64.8,56.3,29.62,SW,234,2.2,3.1,74,0.00,,---,0.00,VWS V13.01,2013-05-12 09:45:00,
2013-05-12 02:47:00,64.8,56.3,29.62,SSW,197,2.2,3.1,74,0.00,,---,0.00,VWS V13.01,2013-05-12 09:47:00,
2013-05-12 02:48:00,64.9,56.5,29.62,WNW,285,6.7,6.7,74,0.00,,---,0.00,VWS V13.01,2013-05-12 09:48:00,
2013-05-12 02:49:00,64.9,56.5,29.62,West,267,2.7,3.6,74,0.00,,---,0.00,VWS V13.01,2013-05-12 09:49:00,
2013-05-12 02:50:00,64.9,56.5,29.62,West,263,3.1,3.6,74,0.00,,---,0.00,VWS V13.01,2013-05-12 09:50:00,
2013-05-12 02:52:00,64.9,56.8,29.62,WSW,254,0.0,0.0,75,0.00,,---,0.00,VWS V13.01,2013-05-12 09:52:00,
2013-05-12 02:53:00,64.9,56.8,29.62,WNW,303,0.0,0.0,75,0.00,,---,0.00,VWS V13.01,2013-05-12 09:53:00,
2013-05-12 02:54:00,64.9,56.8,29.62,WNW,303,0.0,0.0,75,0.00,,---,0.00,VWS V13.01,2013-05-12 09:54:00,
2013-05-12 02:55:00,64.9,56.8,29.62,NW,304,0.0,0.0,75,0.00,,---,0.00,VWS V13.01,2013-05-12 09:55:00,
2013-05-12 02:58:00,64.9,56.8,29.62,West,265,2.7,4.0,75,0.00,,---,0.00,VWS V13.01,2013-05-12 09:58:00,
2013-05-12 03:00:00,64.9,56.8,29.62,West,266,2.7,4.0,75,0.00,,---,0.00,VWS V13.01,2013-05-12 10:00:00,
2013-05-12 03:01:00,64.9,56.8,29.62,West,276,0.0,3.6,75,0.00,,---,0.00,VWS V13.01,2013-05-12 10:01:00,
2013-05-12 03:03:00,64.9,56.8,29.62,West,276,0.0,0.0,75,0.00,,---,0.00,VWS V13.01,2013-05-12 10:03:00,
2013-05-12 03:05:00,64.9,56.8,29.62,NW,317,0.0,0.0,75,0.00,,---,0.00,VWS V13.01,2013-05-12 10:05:00,
2013-05-12 03:06:00,64.9,56.8,29.62,NW,317,0.0,0.0,75,0.00,,---,0.00,VWS V13.01,2013-05-12 10:06:00,
2013-05-12 03:08:00,64.9,56.8,29.62,NW,316,0.0,0.0,75,0.00,,---,0.00,VWS V13.01,2013-05-12 10:08:00,
2013-05-12 03:10:00,64.9,56.5,29.62,NW,316,0.0,0.0,74,0.00,,---,0.00,VWS V13.01,2013-05-12 10:10:00,
2013-05-12 03:11:00,64.9,56.5,29.62,NW,316,0.0,0.0,74,0.00,,---,0.00,VWS V13.01,2013-05-12 10:11:00,
2013-05-12 03:13:00,65.1,56.6,29.62,NW,316,0.0,0.0,74,0.00,,---,0.00,VWS V13.01,2013-05-12 10:13:00,
2013-05-12 03:15:00,65.1,56.3,29.62,NW,316,0.0,0.0,73,0.00,,---,0.00,VWS V13.01,2013-05-12 10:15:00,
2013-05-12 03:16:00,65.1,56.6,29.62,NW,316,0.0,0.0,74,0.00,,---,0.00,VWS V13.01,2013-05-12 10:16:00,
2013-05-12 03:18:00,65.1,56.6,29.62,NW,316,0.0,0.0,74,0.00,,---,0.00,VWS V13.01,2013-05-12 10:18:00,
2013-05-12 03:19:00,65.1,56.6,29.62,NW,316,0.0,0.0,74,0.00,,---,0.00,VWS V13.01,2013-05-12 10:19:00,
2013-05-12 03:20:00,65.1,56.6,29.62,NW,316,0.0,0.0,74,0.00,,---,0.00,VWS V13.01,2013-05-12 10:20:00,
2013-05-12 03:21:00,65.1,56.6,29.62,NW,316,0.0,0.0,74,0.00,,---,0.00,VWS V13.01,2013-05-12 10:21:00,
2013-05-12 03:23:00,64.9,56.5,29.62,NW,316,0.0,0.0,74,0.00,,---,0.00,VWS V13.01,2013-05-12 10:23:00,
2013-05-12 03:24:00,64.9,56.5,29.62,NW,316,0.0,0.0,74,0.00,,---,0.00,VWS V13.01,2013-05-12 10:24:00,
2013-05-12 03:25:00,64.9,56.5,29.62,NW,316,0.0,0.0,74,0.00,,---,0.00,VWS V13.01,2013-05-12 10:25:00,
2013-05-12 03:26:00,65.1,56.6,29.62,NW,316,0.0,0.0,74,0.00,,---,0.00,VWS V13.01,2013-05-12 10:26:00,
2013-05-12 03:27:00,65.1,56.3,29.62,NW,316,0.0,0.0,73,0.00,,---,0.00,VWS V13.01,2013-05-12 10:27:00,
2013-05-12 03:28:00,65.1,56.3,29.62,NW,316,0.0,0.0,73,0.00,,---,0.00,VWS V13.01,2013-05-12 10:28:00,
2013-05-12 03:29:00,65.1,56.3,29.62,NW,316,0.0,0.0,73,0.00,,---,0.00,VWS V13.01,2013-05-12 10:29:00,
2013-05-12 03:30:00,65.1,56.3,29.62,NW,316,0.0,0.0,73,0.00,,---,0.00,VWS V13.01,2013-05-12 10:30:00,
2013-05-12 03:32:00,65.1,56.3,29.62,NW,316,0.0,0.0,73,0.00,,---,0.00,VWS V13.01,2013-05-12 10:32:00,
2013-05-12 03:33:00,65.1,56.6,29.62,ENE,76,0.0,0.0,74,0.00,,---,0.00,VWS V13.01,2013-05-12 10:33:00,
2013-05-12 03:34:00,65.1,56.6,29.62,ENE,64,0.0,0.0,74,0.00,,---,0.00,VWS V13.01,2013-05-12 10:34:00,
2013-05-12 03:36:00,65.1,56.6,29.62,ENE,64,0.0,0.0,74,0.00,,---,0.00,VWS V13.01,2013-05-12 10:36:00,
2013-05-12 03:37:00,65.1,56.6,29.62,ENE,64,0.0,0.0,74,0.00,,---,0.00,VWS V13.01,2013-05-12 10:37:00,
2013-05-12 03:38:00,64.9,56.5,29.62,SW,233,2.7,2.7,74,0.00,,---,0.00,VWS V13.01,2013-05-12 10:38:00,
2013-05-12 03:40:00,64.9,56.5,29.62,SW,233,0.0,0.0,74,0.00,,---,0.00,VWS V13.01,2013-05-12 10:40:00,
2013-05-12 03:41:00,64.9,56.5,29.62,SW,233,0.0,0.0,74,0.00,,---,0.00,VWS V13.01,2013-05-12 10:41:00,
2013-05-12 03:42:00,64.9,56.5,29.62,WSW,249,3.1,3.1,74,0.00,,---,0.00,VWS V13.01,2013-05-12 10:42:00,
2013-05-12 03:43:00,64.9,56.5,29.62,SW,230,0.0,4.0,74,0.00,,---,0.00,VWS V13.01,2013-05-12 10:43:00,
2013-05-12 03:45:00,64.9,56.5,29.62,WSW,245,2.7,2.7,74,0.00,,---,0.00,VWS V13.01,2013-05-12 10:45:00,
2013-05-12 03:46:00,64.9,56.5,29.62,SSW,213,0.0,4.0,74,0.00,,---,0.00,VWS V13.01,2013-05-12 10:46:00,
2013-05-12 03:47:00,64.9,56.5,29.62,WSW,251,3.6,3.6,74,0.00,,---,0.00,VWS V13.01,2013-05-12 10:47:00,
2013-05-12 03:48:00,64.9,56.5,29.62,SSW,209,5.8,5.8,74,0.00,,---,0.00,VWS V13.01,2013-05-12 10:48:00,
2013-05-12 03:50:00,65.1,56.6,29.62,South,175,3.6,3.6,74,0.00,,---,0.00,VWS V13.01,2013-05-12 10:50:00,
2013-05-12 03:51:00,65.1,56.6,29.62,East,89,3.1,3.6,74,0.00,,---,0.00,VWS V13.01,2013-05-12 10:51:00,
2013-05-12 03:52:00,65.1,56.6,29.62,SE,141,2.7,2.7,74,0.00,,---,0.00,VWS V13.01,2013-05-12 10:52:00,
2013-05-12 03:53:00,65.1,56.6,29.62,SE,141,0.0,2.7,74,0.00,,---,0.00,VWS V13.01,2013-05-12 10:53:00,
2013-05-12 03:54:00,65.1,56.6,29.62,SE,141,0.0,0.0,74,0.00,,---,0.00,VWS V13.01,2013-05-12 10:54:00,
2013-05-12 03:55:00,65.1,56.6,29.62,SSE,158,0.0,0.0,74,0.00,,---,0.00,VWS V13.01,2013-05-12 10:55:00,
2013-05-12 03:56:00,65.1,56.6,29.62,WNW,290,3.1,3.1,74,0.00,,---,0.00,VWS V13.01,2013-05-12 10:56:00,
2013-05-12 03:57:00,65.1,56.6,29.62,West,276,3.1,4.0,74,0.00,,---,0.00,VWS V13.01,2013-05-12 10:57:00,
2013-05-12 03:58:00,64.9,56.5,29.62,SW,216,3.1,4.0,74,0.00,,---,0.00,VWS V13.01,2013-05-12 10:58:00,
2013-05-12 03:59:00,64.9,56.5,29.62,SW,220,3.1,4.9,74,0.00,,---,0.00,VWS V13.01,2013-05-12 10:59:00,
2013-05-12 04:00:00,64.9,56.5,29.62,WSW,244,2.7,2.7,74,0.00,,---,0.00,VWS V13.01,2013-05-12 11:00:00,
2013-05-12 04:01:00,64.9,56.5,29.62,WSW,237,0.0,3.1,74,0.00,,---,0.00,VWS V13.01,2013-05-12 11:01:00,
2013-05-12 04:02:00,65.1,56.6,29.62,West,280,5.8,8.7,74,0.00,,---,0.00,VWS V13.01,2013-05-12 11:02:00,
2013-05-12 04:03:00,65.1,56.6,29.62,West,279,4.9,8.7,74,0.00,,---,0.00,VWS V13.01,2013-05-12 11:03:00,
2013-05-12 04:04:00,64.9,56.8,29.62,WSW,243,3.1,3.1,75,0.00,,---,0.00,VWS V13.01,2013-05-12 11:04:00,
2013-05-12 04:06:00,64.9,56.8,29.62,WSW,245,3.1,5.4,75,0.00,,---,0.00,VWS V13.01,2013-05-12 11:06:00,
2013-05-12 04:08:00,65.1,57.0,29.62,SSE,149,2.7,3.1,75,0.00,,---,0.00,VWS V13.01,2013-05-12 11:08:00,
2013-05-12 04:09:00,64.9,56.8,29.62,West,261,3.6,3.6,75,0.00,,---,0.00,VWS V13.01,2013-05-12 11:09:00,
2013-05-12 04:11:00,64.9,56.8,29.62,NNE,30,3.6,3.6,75,0.00,,---,0.00,VWS V13.01,2013-05-12 11:11:00,
2013-05-12 04:13:00,64.8,57.0,29.62,WNW,290,2.7,4.9,76,0.00,,---,0.00,VWS V13.01,2013-05-12 11:13:00,
2013-05-12 04:14:00,64.8,57.0,29.62,West,276,2.7,2.7,76,0.00,,---,0.00,VWS V13.01,2013-05-12 11:14:00,
2013-05-12 04:16:00,64.6,57.2,29.62,SW,236,4.0,4.0,77,0.00,,---,0.00,VWS V13.01,2013-05-12 11:16:00,
2013-05-12 04:18:00,64.4,57.0,29.62,WNW,289,3.6,7.6,77,0.00,,---,0.00,VWS V13.01,2013-05-12 11:18:00,
2013-05-12 04:19:00,64.2,57.6,29.62,WNW,303,0.0,4.0,79,0.00,,---,0.00,VWS V13.01,2013-05-12 11:19:00,
2013-05-12 04:21:00,64.0,57.4,29.62,WSW,257,4.0,4.0,79,0.00,,---,0.00,VWS V13.01,2013-05-12 11:21:00,
2013-05-12 04:23:00,63.9,57.2,29.62,West,274,3.1,4.9,79,0.00,,---,0.00,VWS V13.01,2013-05-12 11:23:00,
2013-05-12 04:24:00,63.9,57.6,29.62,South,176,8.1,8.1,80,0.00,,---,0.00,VWS V13.01,2013-05-12 11:24:00,
2013-05-12 04:26:00,63.7,57.4,29.62,WSW,256,5.4,6.3,80,0.00,,---,0.00,VWS V13.01,2013-05-12 11:26:00,
2013-05-12 04:28:00,63.3,57.4,29.62,WNW,290,5.4,5.4,81,0.00,,---,0.00,VWS V13.01,2013-05-12 11:28:00,
2013-05-12 04:29:00,63.3,57.4,29.62,West,277,4.9,7.6,81,0.00,,---,0.00,VWS V13.01,2013-05-12 11:29:00,
2013-05-12 04:31:00,63.0,57.4,29.62,SW,218,3.1,3.6,82,0.00,,---,0.00,VWS V13.01,2013-05-12 11:31:00,
2013-05-12 04:33:00,63.0,57.4,29.62,North,353,3.1,5.4,82,0.00,,---,0.00,VWS V13.01,2013-05-12 11:33:00,
2013-05-12 04:35:00,62.8,57.2,29.62,West,276,3.6,5.4,82,0.00,,---,0.00,VWS V13.01,2013-05-12 11:35:00,
2013-05-12 04:37:00,62.6,57.0,29.62,WSW,245,5.4,5.8,82,0.00,,---,0.00,VWS V13.01,2013-05-12 11:37:00,
2013-05-12 04:38:00,62.4,57.2,29.62,WSW,257,5.4,10.5,83,0.00,,---,0.00,VWS V13.01,2013-05-12 11:38:00,
2013-05-12 04:39:00,62.2,57.0,29.62,SW,235,4.9,5.4,83,0.00,,---,0.00,VWS V13.01,2013-05-12 11:39:00,
2013-05-12 04:40:00,62.2,57.0,29.62,WNW,286,3.6,3.6,83,0.00,,---,0.00,VWS V13.01,2013-05-12 11:40:00,
2013-05-12 04:42:00,62.1,56.8,29.62,NW,314,2.2,3.6,83,0.00,,---,0.00,VWS V13.01,2013-05-12 11:42:00,
2013-05-12 04:43:00,62.1,57.2,29.62,WNW,298,3.1,8.1,84,0.00,,---,0.00,VWS V13.01,2013-05-12 11:43:00,
2013-05-12 04:44:00,61.9,57.0,29.62,West,272,4.0,4.0,84,0.00,,---,0.00,VWS V13.01,2013-05-12 11:44:00,
2013-05-12 04:45:00,61.7,56.8,29.62,West,272,4.0,5.4,84,0.00,,---,0.00,VWS V13.01,2013-05-12 11:45:00,
2013-05-12 04:47:00,61.5,56.7,29.62,West,260,4.0,4.0,84,0.00,,---,0.00,VWS V13.01,2013-05-12 11:47:00,
2013-05-12 04:48:00,61.3,56.8,29.62,WSW,249,6.3,8.7,85,0.00,,---,0.00,VWS V13.01,2013-05-12 11:48:00,
2013-05-12 04:49:00,61.3,56.8,29.62,West,279,3.1,5.4,85,0.00,,---,0.00,VWS V13.01,2013-05-12 11:49:00,
2013-05-12 04:50:00,61.3,56.8,29.62,WSW,238,3.6,4.0,85,0.00,,---,0.00,VWS V13.01,2013-05-12 11:50:00,
2013-05-12 04:52:00,61.3,56.8,29.62,West,274,3.6,3.6,85,0.00,,---,0.00,VWS V13.01,2013-05-12 11:52:00,
2013-05-12 04:53:00,61.3,56.8,29.62,WSW,258,9.6,9.6,85,0.00,,---,0.00,VWS V13.01,2013-05-12 11:53:00,
2013-05-12 04:54:00,61.3,56.8,29.62,West,281,4.9,4.9,85,0.00,,---,0.00,VWS V13.01,2013-05-12 11:54:00,
2013-05-12 04:55:00,61.2,57.0,29.62,West,265,2.2,3.6,86,0.00,,---,0.00,VWS V13.01,2013-05-12 11:55:00,
2013-05-12 04:57:00,61.0,56.8,29.62,WSW,243,6.3,6.3,86,0.00,,---,0.00,VWS V13.01,2013-05-12 11:57:00,
2013-05-12 04:58:00,60.8,56.6,29.62,West,274,2.7,3.6,86,0.00,,---,0.00,VWS V13.01,2013-05-12 11:58:00,
2013-05-12 04:59:00,60.8,56.6,29.62,WSW,258,5.8,5.8,86,0.00,,---,0.00,VWS V13.01,2013-05-12 11:59:00,
2013-05-12 05:00:00,60.6,56.7,29.62,South,183,7.6,7.6,87,0.00,,---,0.00,VWS V13.01,2013-05-12 12:00:00,
2013-05-12 05:02:00,60.6,56.7,29.62,WNW,300,7.6,7.6,87,0.00,,---,0.00,VWS V13.01,2013-05-12 12:02:00,
2013-05-12 05:03:00,60.6,56.7,29.62,WNW,287,5.4,7.6,87,0.00,,---,0.00,VWS V13.01,2013-05-12 12:03:00,
2013-05-12 05:04:00,60.6,57.0,29.62,WNW,288,5.4,5.4,88,0.00,,---,0.00,VWS V13.01,2013-05-12 12:04:00,
2013-05-12 05:05:00,60.4,56.9,29.62,West,269,5.8,11.0,88,0.00,,---,0.00,VWS V13.01,2013-05-12 12:05:00,
2013-05-12 05:07:00,60.4,56.9,29.62,WSW,246,3.1,4.0,88,0.00,,---,0.00,VWS V13.01,2013-05-12 12:07:00,
2013-05-12 05:08:00,60.4,56.9,29.62,West,281,4.0,4.9,88,0.00,,---,0.00,VWS V13.01,2013-05-12 12:08:00,
2013-05-12 05:09:00,60.3,56.7,29.62,WSW,247,3.1,3.1,88,0.00,,---,0.00,VWS V13.01,2013-05-12 12:09:00,
2013-05-12 05:10:00,60.3,56.7,29.62,SW,217,3.1,4.0,88,0.00,,---,0.00,VWS V13.01,2013-05-12 12:10:00,
2013-05-12 05:12:00,60.4,56.9,29.62,NNW,330,0.0,0.0,88,0.04,,---,0.04,VWS V13.01,2013-05-12 12:12:00,
2013-05-12 05:13:00,60.4,56.9,29.62,SW,227,2.2,2.2,88,0.04,,---,0.04,VWS V13.01,2013-05-12 12:13:00,
2013-05-12 05:14:00,60.6,57.0,29.62,SW,214,2.2,4.9,88,0.04,,---,0.04,VWS V13.01,2013-05-12 12:14:00,
2013-05-12 05:15:00,60.6,57.0,29.62,SW,236,3.6,3.6,88,0.04,,---,0.04,VWS V13.01,2013-05-12 12:15:00,
2013-05-12 05:17:00,60.6,57.0,29.62,West,270,0.0,5.4,88,0.04,,---,0.04,VWS V13.01,2013-05-12 12:17:00,
2013-05-12 05:18:00,60.6,57.0,29.62,West,270,0.0,5.4,88,0.04,,---,0.04,VWS V13.01,2013-05-12 12:18:00,
2013-05-12 05:19:00,60.6,57.0,29.62,SW,221,2.2,3.6,88,0.04,,---,0.04,VWS V13.01,2013-05-12 12:19:00,
2013-05-12 05:20:00,60.6,57.0,29.62,SE,128,2.7,3.6,88,0.04,,---,0.04,VWS V13.01,2013-05-12 12:20:00,
2013-05-12 05:22:00,60.8,56.9,29.62,SSE,158,0.0,0.0,87,0.04,,---,0.04,VWS V13.01,2013-05-12 12:22:00,
2013-05-12 05:23:00,60.8,56.9,29.62,NW,317,2.7,2.7,87,0.04,,---,0.04,VWS V13.01,2013-05-12 12:23:00,
2013-05-12 05:24:00,60.8,56.9,29.62,NW,317,0.0,0.0,87,0.04,,---,0.04,VWS V13.01,2013-05-12 12:24:00,
2013-05-12 05:25:00,60.8,56.9,29.62,NW,317,0.0,0.0,87,0.04,,---,0.04,VWS V13.01,2013-05-12 12:25:00,
2013-05-12 05:26:00,60.8,56.9,29.62,NW,317,0.0,0.0,87,0.04,,---,0.04,VWS V13.01,2013-05-12 12:26:00,
2013-05-12 05:27:00,60.6,57.0,29.62,NE,35,3.1,3.1,88,0.04,,---,0.04,VWS V13.01,2013-05-12 12:27:00,
2013-05-12 05:28:00,60.6,57.0,29.62,North,353,2.7,2.7,88,0.04,,---,0.04,VWS V13.01,2013-05-12 12:28:00,
2013-05-12 05:29:00,60.4,56.9,29.62,WSW,255,3.1,3.1,88,0.04,,---,0.04,VWS V13.01,2013-05-12 12:29:00,
2013-05-12 05:30:00,60.3,56.7,29.62,WSW,255,2.7,3.1,88,0.04,,---,0.04,VWS V13.01,2013-05-12 12:30:00,
2013-05-12 05:31:00,60.1,56.5,29.62,WNW,288,2.7,3.1,88,0.04,,---,0.04,VWS V13.01,2013-05-12 12:31:00,
2013-05-12 05:32:00,60.1,56.8,29.62,SW,230,0.0,3.1,89,0.04,,---,0.04,VWS V13.01,2013-05-12 12:32:00,
2013-05-12 05:33:00,60.1,56.8,29.62,SW,230,0.0,0.0,89,0.04,,---,0.04,VWS V13.01,2013-05-12 12:33:00,
2013-05-12 05:34:00,60.1,56.8,29.62,SW,230,0.0,0.0,89,0.04,,---,0.04,VWS V13.01,2013-05-12 12:34:00,
2013-05-12 05:35:00,60.1,56.8,29.62,SW,230,0.0,0.0,89,0.04,,---,0.04,VWS V13.01,2013-05-12 12:35:00,
2013-05-12 05:36:00,60.1,56.8,29.62,West,272,2.7,3.6,89,0.04,,---,0.04,VWS V13.01,2013-05-12 12:36:00,
2013-05-12 05:38:00,60.1,56.8,29.62,West,272,0.0,0.0,89,0.04,,---,0.04,VWS V13.01,2013-05-12 12:38:00,
2013-05-12 05:39:00,60.4,57.2,29.62,WSW,246,0.0,0.0,89,0.04,,---,0.04,VWS V13.01,2013-05-12 12:39:00,
2013-05-12 05:40:00,60.4,57.2,29.62,WSW,246,0.0,0.0,89,0.04,,---,0.04,VWS V13.01,2013-05-12 12:40:00,
2013-05-12 05:41:00,60.4,57.2,29.62,WSW,246,0.0,0.0,89,0.04,,---,0.04,VWS V13.01,2013-05-12 12:41:00,
2013-05-12 05:43:00,60.6,57.4,29.62,WSW,246,0.0,0.0,89,0.04,,---,0.04,VWS V13.01,2013-05-12 12:43:00,
2013-05-12 05:44:00,60.6,57.4,29.62,West,280,3.6,3.6,89,0.08,,---,0.08,VWS V13.01,2013-05-12 12:44:00,
2013-05-12 05:45:00,60.6,57.4,29.62,West,273,3.1,4.0,89,0.08,,---,0.08,VWS V13.01,2013-05-12 12:45:00,
2013-05-12 05:46:00,60.4,57.2,29.62,WSW,252,0.0,2.2,89,0.08,,---,0.08,VWS V13.01,2013-05-12 12:46:00,
2013-05-12 05:48:00,60.3,57.0,29.62,WNW,289,2.7,6.3,89,0.08,,---,0.08,VWS V13.01,2013-05-12 12:48:00,
2013-05-12 05:49:00,60.3,57.0,29.62,WNW,284,2.7,2.7,89,0.08,,---,0.08,VWS V13.01,2013-05-12 12:49:00,
2013-05-12 05:50:00,60.3,57.0,29.62,WNW,284,0.0,0.0,89,0.08,,---,0.08,VWS V13.01,2013-05-12 12:50:00,
2013-05-12 05:51:00,60.3,57.0,29.62,WSW,246,3.1,3.1,89,0.08,,---,0.08,VWS V13.01,2013-05-12 12:51:00,
2013-05-12 05:53:00,60.4,57.2,29.62,SSW,198,0.0,0.0,89,0.08,,---,0.08,VWS V13.01,2013-05-12 12:53:00,
2013-05-12 05:54:00,60.3,57.0,29.62,SW,235,0.0,2.2,89,0.08,,---,0.08,VWS V13.01,2013-05-12 12:54:00,
2013-05-12 05:55:00,60.4,57.2,29.62,SE,132,2.7,2.7,89,0.08,,---,0.08,VWS V13.01,2013-05-12 12:55:00,
2013-05-12 05:56:00,60.6,57.4,29.62,ESE,115,0.0,3.6,89,0.08,,---,0.08,VWS V13.01,2013-05-12 12:56:00,
2013-05-12 05:58:00,60.6,57.4,29.62,ESE,115,0.0,2.2,89,0.08,,---,0.08,VWS V13.01,2013-05-12 12:58:00,
2013-05-12 05:59:00,60.6,57.4,29.62,ESE,115,0.0,0.0,89,0.08,,---,0.08,VWS V13.01,2013-05-12 12:59:00,
2013-05-12 06:00:00,60.4,57.2,29.62,North,357,0.0,0.0,89,0.08,,---,0.08,VWS V13.01,2013-05-12 13:00:00,
2013-05-12 06:01:00,60.3,57.0,29.62,North,357,0.0,0.0,89,0.12,,---,0.12,VWS V13.01,2013-05-12 13:01:00,
2013-05-12 06:03:00,60.1,57.1,29.62,NW,306,0.0,0.0,90,0.12,,---,0.12,VWS V13.01,2013-05-12 13:03:00,
2013-05-12 06:04:00,60.1,57.1,29.62,NW,306,0.0,0.0,90,0.12,,---,0.12,VWS V13.01,2013-05-12 13:04:00,
2013-05-12 06:05:00,59.9,57.0,29.62,NW,306,0.0,0.0,90,0.12,,---,0.12,VWS V13.01,2013-05-12 13:05:00,
2013-05-12 06:07:00,59.9,57.0,29.62,West,265,2.2,2.7,90,0.12,,---,0.12,VWS V13.01,2013-05-12 13:07:00,
2013-05-12 06:08:00,59.9,57.0,29.62,West,267,0.0,2.7,90,0.12,,---,0.12,VWS V13.01,2013-05-12 13:08:00,
2013-05-12 06:09:00,59.9,57.0,29.62,West,268,0.0,2.7,90,0.12,,---,0.12,VWS V13.01,2013-05-12 13:09:00,
2013-05-12 06:10:00,60.1,57.1,29.62,West,268,2.2,3.6,90,0.12,,---,0.12,VWS V13.01,2013-05-12 13:10:00,
2013-05-12 06:12:00,60.3,57.3,29.62,WSW,245,0.0,2.7,90,0.12,,---,0.12,VWS V13.01,2013-05-12 13:12:00,
2013-05-12 06:13:00,60.4,57.5,29.62,WSW,252,0.0,2.2,90,0.08,,---,0.12,VWS V13.01,2013-05-12 13:13:00,
2013-05-12 06:14:00,60.4,57.5,29.62,WSW,252,0.0,0.0,90,0.08,,---,0.12,VWS V13.01,2013-05-12 13:14:00,
2013-05-12 06:15:00,60.3,57.3,29.62,West,268,3.6,4.0,90,0.08,,---,0.12,VWS V13.01,2013-05-12 13:15:00,
2013-05-12 06:17:00,60.1,57.1,29.65,SSW,203,0.0,0.0,90,0.08,,---,0.12,VWS V13.01,2013-05-12 13:17:00,
2013-05-12 06:18:00,60.3,57.3,29.65,SSW,203,0.0,0.0,90,0.08,,---,0.12,VWS V13.01,2013-05-12 13:18:00,
2013-05-12 06:19:00,60.4,57.5,29.65,SSW,203,0.0,0.0,90,0.08,,---,0.12,VWS V13.01,2013-05-12 13:19:00,
2013-05-12 06:20:00,60.4,57.5,29.65,SSW,203,0.0,0.0,90,0.08,,---,0.12,VWS V13.01,2013-05-12 13:20:00,
2013-05-12 06:22:00,60.6,57.7,29.65,SSW,203,0.0,0.0,90,0.08,,---,0.12,VWS V13.01,2013-05-12 13:22:00,
2013-05-12 06:23:00,60.8,57.5,29.65,SSW,203,0.0,0.0,89,0.08,,---,0.12,VWS V13.01,2013-05-12 13:23:00,
2013-05-12 06:24:00,60.8,57.5,29.65,SSW,203,0.0,0.0,89,0.08,,---,0.12,VWS V13.01,2013-05-12 13:24:00,
2013-05-12 06:25:00,60.8,57.5,29.65,SSW,203,0.0,0.0,89,0.08,,---,0.12,VWS V13.01,2013-05-12 13:25:00,
2013-05-12 06:26:00,60.8,57.5,29.65,SSW,203,0.0,0.0,89,0.08,,---,0.12,VWS V13.01,2013-05-12 13:26:00,
2013-05-12 06:27:00,60.8,57.5,29.65,SSW,203,0.0,0.0,89,0.08,,---,0.12,VWS V13.01,2013-05-12 13:27:00,
2013-05-12 06:28:00,60.8,57.5,29.65,SSW,203,0.0,0.0,89,0.08,,---,0.12,VWS V13.01,2013-05-12 13:28:00,
2013-05-12 06:29:00,61.0,57.7,29.65,SSW,203,0.0,0.0,89,0.08,,---,0.12,VWS V13.01,2013-05-12 13:29:00,
2013-05-12 06:30:00,61.0,57.7,29.65,SSW,203,0.0,0.0,89,0.08,,---,0.12,VWS V13.01,2013-05-12 13:30:00,
2013-05-12 06:31:00,61.0,57.7,29.65,SSW,203,0.0,0.0,89,0.08,,---,0.12,VWS V13.01,2013-05-12 13:31:00,
2013-05-12 06:32:00,61.0,57.7,29.65,SSW,203,0.0,0.0,89,0.08,,---,0.12,VWS V13.01,2013-05-12 13:32:00,
2013-05-12 06:34:00,61.2,57.9,29.65,SSW,203,0.0,0.0,89,0.08,,---,0.12,VWS V13.01,2013-05-12 13:34:00,
2013-05-12 06:35:00,61.2,57.9,29.65,SSW,203,0.0,0.0,89,0.08,,---,0.12,VWS V13.01,2013-05-12 13:35:00,
2013-05-12 06:36:00,61.2,57.9,29.65,SSW,203,0.0,0.0,89,0.08,,---,0.12,VWS V13.01,2013-05-12 13:36:00,
2013-05-12 06:37:00,61.2,57.9,29.65,SSW,203,0.0,0.0,89,0.08,,---,0.12,VWS V13.01,2013-05-12 13:37:00,
2013-05-12 06:39:00,61.3,58.1,29.65,SSW,203,0.0,0.0,89,0.08,,---,0.12,VWS V13.01,2013-05-12 13:39:00,
2013-05-12 06:40:00,61.3,58.1,29.65,SSW,203,0.0,0.0,89,0.08,,---,0.12,VWS V13.01,2013-05-12 13:40:00,
2013-05-12 06:41:00,61.3,58.1,29.65,SSW,203,0.0,0.0,89,0.08,,---,0.12,VWS V13.01,2013-05-12 13:41:00,
2013-05-12 06:42:00,61.3,58.1,29.65,SSW,203,0.0,0.0,89,0.08,,---,0.12,VWS V13.01,2013-05-12 13:42:00,
2013-05-12 06:44:00,61.3,58.1,29.65,SSW,203,0.0,0.0,89,0.08,,---,0.12,VWS V13.01,2013-05-12 13:44:00,
2013-05-12 06:45:00,61.3,57.8,29.65,SSW,203,0.0,0.0,88,0.04,,---,0.12,VWS V13.01,2013-05-12 13:45:00,
2013-05-12 06:47:00,61.3,57.8,29.65,SSW,203,0.0,0.0,88,0.04,,---,0.12,VWS V13.01,2013-05-12 13:47:00,
2013-05-12 06:49:00,61.2,57.9,29.65,SSW,203,0.0,0.0,89,0.04,,---,0.12,VWS V13.01,2013-05-12 13:49:00,
2013-05-12 06:50:00,61.3,58.1,29.65,SSW,203,0.0,0.0,89,0.04,,---,0.12,VWS V13.01,2013-05-12 13:50:00,
2013-05-12 06:52:00,61.3,58.1,29.65,ESE,111,0.0,2.7,89,0.04,,---,0.12,VWS V13.01,2013-05-12 13:52:00,
2013-05-12 06:53:00,61.3,58.1,29.65,ESE,111,0.0,0.0,89,0.04,,---,0.12,VWS V13.01,2013-05-12 13:53:00,
2013-05-12 06:54:00,61.2,57.9,29.65,East,101,0.0,0.0,89,0.04,,---,0.12,VWS V13.01,2013-05-12 13:54:00,
2013-05-12 06:55:00,61.2,57.9,29.65,East,101,0.0,0.0,89,0.04,,---,0.12,VWS V13.01,2013-05-12 13:55:00,
2013-05-12 06:56:00,61.2,57.9,29.65,East,101,0.0,0.0,89,0.04,,---,0.12,VWS V13.01,2013-05-12 13:56:00,
2013-05-12 06:57:00,61.2,57.9,29.65,East,101,0.0,0.0,89,0.04,,---,0.12,VWS V13.01,2013-05-12 13:57:00,
2013-05-12 06:58:00,61.2,57.9,29.65,East,101,0.0,0.0,89,0.04,,---,0.12,VWS V13.01,2013-05-12 13:58:00,
2013-05-12 06:59:00,61.2,57.9,29.65,East,101,0.0,0.0,89,0.04,,---,0.12,VWS V13.01,2013-05-12 13:59:00,
2013-05-12 07:00:00,61.3,58.1,29.65,East,101,0.0,0.0,89,0.04,,---,0.12,VWS V13.01,2013-05-12 14:00:00,
2013-05-12 07:01:00,61.3,58.1,29.62,East,101,0.0,0.0,89,0.04,,---,0.12,VWS V13.01,2013-05-12 14:01:00,
2013-05-12 07:02:00,61.3,58.1,29.62,East,101,0.0,0.0,89,0.00,,---,0.12,VWS V13.01,2013-05-12 14:02:00,
2013-05-12 07:03:00,61.3,58.1,29.62,East,101,0.0,0.0,89,0.00,,---,0.12,VWS V13.01,2013-05-12 14:03:00,
2013-05-12 07:04:00,61.3,58.1,29.62,East,101,0.0,0.0,89,0.00,,---,0.12,VWS V13.01,2013-05-12 14:04:00,
2013-05-12 07:05:00,61.5,58.2,29.62,East,101,0.0,0.0,89,0.00,,---,0.12,VWS V13.01,2013-05-12 14:05:00,
2013-05-12 07:06:00,61.5,58.2,29.62,East,101,0.0,0.0,89,0.00,,---,0.12,VWS V13.01,2013-05-12 14:06:00,
2013-05-12 07:07:00,61.5,58.2,29.62,East,101,0.0,0.0,89,0.00,,---,0.12,VWS V13.01,2013-05-12 14:07:00,
2013-05-12 07:08:00,61.7,58.4,29.62,East,101,0.0,0.0,89,0.00,,---,0.12,VWS V13.01,2013-05-12 14:08:00,
2013-05-12 07:10:00,61.5,58.2,29.62,East,101,0.0,0.0,89,0.00,,---,0.12,VWS V13.01,2013-05-12 14:10:00,
2013-05-12 07:11:00,61.5,58.2,29.62,SE,127,3.1,3.1,89,0.00,,---,0.12,VWS V13.01,2013-05-12 14:11:00,
2013-05-12 07:12:00,61.7,58.4,29.62,SE,127,0.0,0.0,89,0.00,,---,0.12,VWS V13.01,2013-05-12 14:12:00,
2013-05-12 07:13:00,61.7,58.4,29.62,SE,127,0.0,0.0,89,0.00,,---,0.12,VWS V13.01,2013-05-12 14:13:00,
2013-05-12 07:15:00,61.5,58.2,29.62,SE,134,0.0,0.0,89,0.00,,---,0.12,VWS V13.01,2013-05-12 14:15:00,
2013-05-12 07:16:00,61.5,58.2,29.65,SE,134,0.0,0.0,89,0.00,,---,0.12,VWS V13.01,2013-05-12 14:16:00,
2013-05-12 07:18:00,61.3,58.1,29.65,SE,134,0.0,0.0,89,0.00,,---,0.12,VWS V13.01,2013-05-12 14:18:00,
2013-05-12 07:19:00,61.3,58.1,29.65,SE,134,0.0,0.0,89,0.00,,---,0.12,VWS V13.01,2013-05-12 14:19:00,
2013-05-12 07:20:00,61.3,58.1,29.65,East,88,0.0,0.0,89,0.00,,---,0.12,VWS V13.01,2013-05-12 14:20:00,
2013-05-12 07:21:00,61.5,58.2,29.65,East,88,0.0,0.0,89,0.00,,---,0.12,VWS V13.01,2013-05-12 14:21:00,
2013-05-12 07:23:00,61.5,58.2,29.65,East,88,0.0,0.0,89,0.00,,---,0.12,VWS V13.01,2013-05-12 14:23:00,
2013-05-12 07:24:00,61.7,58.4,29.65,East,88,0.0,0.0,89,0.00,,---,0.12,VWS V13.01,2013-05-12 14:24:00,
2013-05-12 07:25:00,61.7,58.4,29.65,SE,135,0.0,0.0,89,0.00,,---,0.12,VWS V13.01,2013-05-12 14:25:00,
2013-05-12 07:26:00,61.7,58.4,29.65,SE,135,0.0,0.0,89,0.00,,---,0.12,VWS V13.01,2013-05-12 14:26:00,
2013-05-12 07:28:00,61.7,58.4,29.65,ENE,77,2.2,2.7,89,0.00,,---,0.12,VWS V13.01,2013-05-12 14:28:00,
2013-05-12 07:29:00,61.7,58.4,29.65,NE,51,2.7,2.7,89,0.00,,---,0.12,VWS V13.01,2013-05-12 14:29:00,
2013-05-12 07:30:00,61.7,58.4,29.65,ENE,77,0.0,3.1,89,0.00,,---,0.12,VWS V13.01,2013-05-12 14:30:00,
2013-05-12 07:31:00,61.7,58.4,29.65,ESE,115,0.0,2.7,89,0.00,,---,0.12,VWS V13.01,2013-05-12 14:31:00,
2013-05-12 07:33:00,61.7,58.4,29.65,ESE,115,0.0,0.0,89,0.00,,---,0.12,VWS V13.01,2013-05-12 14:33:00,
2013-05-12 07:34:00,61.7,58.4,29.65,ENE,61,0.0,2.2,89,0.00,,---,0.12,VWS V13.01,2013-05-12 14:34:00,
2013-05-12 07:35:00,61.5,58.2,29.65,ENE,61,0.0,0.0,89,0.00,,---,0.12,VWS V13.01,2013-05-12 14:35:00,
2013-05-12 07:36:00,61.5,58.2,29.65,ENE,61,0.0,0.0,89,0.00,,---,0.12,VWS V13.01,2013-05-12 14:36:00,
2013-05-12 07:38:00,61.5,58.2,29.65,ENE,61,0.0,0.0,89,0.00,,---,0.12,VWS V13.01,2013-05-12 14:38:00,
2013-05-12 07:40:00,61.5,58.6,29.65,ENE,61,0.0,0.0,90,0.00,,---,0.12,VWS V13.01,2013-05-12 14:40:00,
2013-05-12 07:41:00,61.3,58.4,29.65,ENE,61,0.0,0.0,90,0.00,,---,0.12,VWS V13.01,2013-05-12 14:41:00,
2013-05-12 07:42:00,61.3,58.4,29.65,ENE,61,0.0,0.0,90,0.00,,---,0.12,VWS V13.01,2013-05-12 14:42:00,
2013-05-12 07:43:00,61.2,58.2,29.65,ENE,72,0.0,0.0,90,0.00,,---,0.12,VWS V13.01,2013-05-12 14:43:00,
2013-05-12 07:45:00,61.2,58.2,29.65,ENE,72,0.0,0.0,90,0.00,,---,0.12,VWS V13.01,2013-05-12 14:45:00,
2013-05-12 07:46:00,61.2,58.2,29.65,ENE,72,0.0,0.0,90,0.00,,---,0.12,VWS V13.01,2013-05-12 14:46:00,
2013-05-12 07:47:00,61.3,58.4,29.65,ENE,72,0.0,0.0,90,0.00,,---,0.12,VWS V13.01,2013-05-12 14:47:00,
2013-05-12 07:48:00,61.3,58.4,29.65,ENE,72,0.0,0.0,90,0.00,,---,0.12,VWS V13.01,2013-05-12 14:48:00,
2013-05-12 07:50:00,61.5,58.6,29.65,ENE,72,0.0,0.0,90,0.00,,---,0.12,VWS V13.01,2013-05-12 14:50:00,
2013-05-12 07:51:00,61.7,58.7,29.65,ENE,72,0.0,0.0,90,0.00,,---,0.12,VWS V13.01,2013-05-12 14:51:00,
2013-05-12 07:52:00,61.7,58.7,29.65,ENE,73,0.0,0.0,90,0.00,,---,0.12,VWS V13.01,2013-05-12 14:52:00,
2013-05-12 07:53:00,61.7,58.7,29.65,ENE,72,0.0,0.0,90,0.00,,---,0.12,VWS V13.01,2013-05-12 14:53:00,
2013-05-12 07:55:00,61.9,58.9,29.65,ENE,72,0.0,0.0,90,0.00,,---,0.12,VWS V13.01,2013-05-12 14:55:00,
2013-05-12 07:56:00,61.9,58.9,29.65,ENE,72,0.0,0.0,90,0.00,,---,0.12,VWS V13.01,2013-05-12 14:56:00,
2013-05-12 07:57:00,61.9,58.9,29.65,ENE,72,0.0,0.0,90,0.00,,---,0.12,VWS V13.01,2013-05-12 14:57:00,
2013-05-12 07:58:00,61.9,58.9,29.65,ENE,72,0.0,0.0,90,0.00,,---,0.12,VWS V13.01,2013-05-12 14:58:00,
2013-05-12 08:00:00,61.9,58.9,29.65,ENE,72,0.0,0.0,90,0.00,,---,0.12,VWS V13.01,2013-05-12 15:00:00,
2013-05-12 08:01:00,61.9,58.9,29.65,ENE,72,0.0,0.0,90,0.00,,---,0.12,VWS V13.01,2013-05-12 15:01:00,
2013-05-12 08:02:00,61.9,58.9,29.65,ENE,72,0.0,0.0,90,0.00,,---,0.12,VWS V13.01,2013-05-12 15:02:00,
2013-05-12 08:03:00,62.1,59.1,29.65,ENE,72,0.0,0.0,90,0.00,,---,0.12,VWS V13.01,2013-05-12 15:03:00,
2013-05-12 08:05:00,62.1,59.1,29.65,ENE,72,0.0,0.0,90,0.00,,---,0.12,VWS V13.01,2013-05-12 15:05:00,
2013-05-12 08:06:00,62.1,59.1,29.65,ENE,72,0.0,0.0,90,0.00,,---,0.12,VWS V13.01,2013-05-12 15:06:00,
2013-05-12 08:07:00,62.1,59.1,29.65,ENE,72,0.0,0.0,90,0.00,,---,0.12,VWS V13.01,2013-05-12 15:07:00,
2013-05-12 08:09:00,62.1,59.1,29.65,ENE,72,0.0,0.0,90,0.00,,---,0.12,VWS V13.01,2013-05-12 15:09:00,
2013-05-12 08:11:00,61.9,58.9,29.65,ENE,72,0.0,0.0,90,0.00,,---,0.12,VWS V13.01,2013-05-12 15:11:00,
2013-05-12 08:12:00,61.9,58.9,29.65,ENE,72,0.0,0.0,90,0.00,,---,0.12,VWS V13.01,2013-05-12 15:12:00,
2013-05-12 08:14:00,61.9,58.9,29.65,ENE,72,0.0,0.0,90,0.00,,---,0.12,VWS V13.01,2013-05-12 15:14:00,
2013-05-12 08:16:00,62.1,59.1,29.62,ENE,72,0.0,0.0,90,0.00,,---,0.12,VWS V13.01,2013-05-12 15:16:00,
2013-05-12 08:17:00,62.1,59.1,29.62,ENE,72,0.0,0.0,90,0.00,,---,0.12,VWS V13.01,2013-05-12 15:17:00,
2013-05-12 08:18:00,62.2,59.3,29.62,ENE,72,0.0,0.0,90,0.00,,---,0.12,VWS V13.01,2013-05-12 15:18:00,
2013-05-12 08:19:00,62.2,59.3,29.62,ENE,72,0.0,0.0,90,0.00,,---,0.12,VWS V13.01,2013-05-12 15:19:00,
2013-05-12 08:21:00,62.2,59.3,29.62,ENE,72,0.0,0.0,90,0.00,,---,0.12,VWS V13.01,2013-05-12 15:21:00,
2013-05-12 08:22:00,62.1,59.1,29.62,ENE,72,0.0,0.0,90,0.00,,---,0.12,VWS V13.01,2013-05-12 15:22:00,
2013-05-12 08:23:00,62.1,59.1,29.62,ENE,72,0.0,0.0,90,0.00,,---,0.12,VWS V13.01,2013-05-12 15:23:00,
2013-05-12 08:24:00,62.1,59.1,29.62,ENE,72,0.0,0.0,90,0.00,,---,0.12,VWS V13.01,2013-05-12 15:24:00,
2013-05-12 08:26:00,62.2,59.3,29.62,ENE,72,0.0,0.0,90,0.00,,---,0.12,VWS V13.01,2013-05-12 15:26:00,
2013-05-12 08:28:00,62.2,59.3,29.62,ENE,72,0.0,0.0,90,0.00,,---,0.12,VWS V13.01,2013-05-12 15:28:00,
2013-05-12 08:29:00,62.1,59.1,29.62,ENE,72,0.0,0.0,90,0.00,,---,0.12,VWS V13.01,2013-05-12 15:29:00,
2013-05-12 08:31:00,61.9,58.9,29.65,ENE,72,0.0,0.0,90,0.00,,---,0.12,VWS V13.01,2013-05-12 15:31:00,
2013-05-12 08:33:00,62.1,59.4,29.65,ENE,72,0.0,0.0,91,0.00,,---,0.12,VWS V13.01,2013-05-12 15:33:00,
2013-05-12 08:34:00,62.1,59.4,29.65,ENE,72,0.0,0.0,91,0.00,,---,0.12,VWS V13.01,2013-05-12 15:34:00,
2013-05-12 08:35:00,61.9,59.2,29.65,ENE,72,0.0,0.0,91,0.00,,---,0.12,VWS V13.01,2013-05-12 15:35:00,
2013-05-12 08:36:00,62.1,59.4,29.65,ENE,73,0.0,0.0,91,0.00,,---,0.12,VWS V13.01,2013-05-12 15:36:00,
2013-05-12 08:37:00,62.1,59.4,29.65,ENE,73,0.0,0.0,91,0.00,,---,0.12,VWS V13.01,2013-05-12 15:37:00,
2013-05-12 08:38:00,62.1,59.4,29.65,ENE,73,0.0,0.0,91,0.00,,---,0.12,VWS V13.01,2013-05-12 15:38:00,
2013-05-12 08:39:00,62.2,59.6,29.65,ENE,73,0.0,0.0,91,0.00,,---,0.12,VWS V13.01,2013-05-12 15:39:00,
2013-05-12 08:40:00,62.2,59.3,29.65,ENE,73,0.0,0.0,90,0.00,,---,0.12,VWS V13.01,2013-05-12 15:40:00,
2013-05-12 08:42:00,62.4,59.5,29.65,ENE,73,0.0,0.0,90,0.00,,---,0.12,VWS V13.01,2013-05-12 15:42:00,
2013-05-12 08:43:00,62.2,59.6,29.65,ENE,73,0.0,0.0,91,0.00,,---,0.12,VWS V13.01,2013-05-12 15:43:00,
2013-05-12 08:44:00,62.2,59.6,29.65,ENE,73,0.0,0.0,91,0.00,,---,0.12,VWS V13.01,2013-05-12 15:44:00,
2013-05-12 08:45:00,62.2,59.6,29.65,ENE,73,0.0,0.0,91,0.00,,---,0.12,VWS V13.01,2013-05-12 15:45:00,
2013-05-12 08:47:00,62.2,59.6,29.65,ENE,73,0.0,0.0,91,0.00,,---,0.12,VWS V13.01,2013-05-12 15:47:00,
2013-05-12 08:48:00,62.2,59.6,29.65,ENE,73,0.0,0.0,91,0.00,,---,0.12,VWS V13.01,2013-05-12 15:48:00,
2013-05-12 08:49:00,62.2,59.6,29.65,ENE,73,0.0,0.0,91,0.00,,---,0.12,VWS V13.01,2013-05-12 15:49:00,
2013-05-12 08:50:00,62.2,59.6,29.65,ENE,73,0.0,0.0,91,0.00,,---,0.12,VWS V13.01,2013-05-12 15:50:00,
2013-05-12 08:52:00,62.2,59.6,29.65,ENE,73,0.0,0.0,91,0.00,,---,0.12,VWS V13.01,2013-05-12 15:52:00,
2013-05-12 08:53:00,62.2,59.6,29.65,ENE,58,0.0,0.0,91,0.00,,---,0.12,VWS V13.01,2013-05-12 15:53:00,
2013-05-12 08:54:00,62.2,59.6,29.65,ENE,58,0.0,0.0,91,0.00,,---,0.12,VWS V13.01,2013-05-12 15:54:00,
2013-05-12 08:55:00,62.2,59.6,29.65,ENE,58,0.0,0.0,91,0.00,,---,0.12,VWS V13.01,2013-05-12 15:55:00,
2013-05-12 08:57:00,62.2,59.6,29.65,ENE,58,0.0,0.0,91,0.00,,---,0.12,VWS V13.01,2013-05-12 15:57:00,
2013-05-12 08:58:00,62.2,59.6,29.65,ENE,58,0.0,0.0,91,0.00,,---,0.12,VWS V13.01,2013-05-12 15:58:00,
2013-05-12 08:59:00,62.2,59.6,29.65,ENE,58,0.0,0.0,91,0.00,,---,0.12,VWS V13.01,2013-05-12 15:59:00,
2013-05-12 09:01:00,62.4,59.8,29.65,WSW,247,2.7,3.1,91,0.00,,---,0.12,VWS V13.01,2013-05-12 16:01:00,
2013-05-12 09:02:00,62.2,59.6,29.65,SW,214,4.0,5.4,91,0.00,,---,0.12,VWS V13.01,2013-05-12 16:02:00,
2013-05-12 09:03:00,62.2,59.6,29.65,WSW,252,2.7,5.4,91,0.00,,---,0.12,VWS V13.01,2013-05-12 16:03:00,
2013-05-12 09:04:00,62.2,59.6,29.65,WNW,288,3.1,3.1,91,0.00,,---,0.12,VWS V13.01,2013-05-12 16:04:00,
2013-05-12 09:06:00,62.1,59.4,29.65,WSW,254,0.0,0.0,91,0.00,,---,0.12,VWS V13.01,2013-05-12 16:06:00,
2013-05-12 09:07:00,61.9,58.9,29.65,West,271,3.6,3.6,90,0.00,,---,0.12,VWS V13.01,2013-05-12 16:07:00,
2013-05-12 09:08:00,61.9,58.9,29.65,WSW,255,3.1,5.4,90,0.00,,---,0.12,VWS V13.01,2013-05-12 16:08:00,
2013-05-12 09:09:00,61.9,58.9,29.65,SW,235,3.1,5.4,90,0.00,,---,0.12,VWS V13.01,2013-05-12 16:09:00,
2013-05-12 09:11:00,61.7,58.7,29.65,West,263,0.0,2.7,90,0.00,,---,0.12,VWS V13.01,2013-05-12 16:11:00,
2013-05-12 09:13:00,61.7,58.7,29.65,WSW,243,3.1,3.1,90,0.00,,---,0.12,VWS V13.01,2013-05-12 16:13:00,
2013-05-12 09:14:00,61.5,58.6,29.65,West,271,5.8,5.8,90,0.00,,---,0.12,VWS V13.01,2013-05-12 16:14:00,
2013-05-12 09:15:00,61.5,58.6,29.65,WSW,258,4.0,5.8,90,0.00,,---,0.12,VWS V13.01,2013-05-12 16:15:00,
2013-05-12 09:16:00,61.5,58.6,29.68,West,272,4.9,4.9,90,0.00,,---,0.12,VWS V13.01,2013-05-12 16:16:00,
2013-05-12 09:18:00,61.3,58.4,29.68,West,272,0.0,0.0,90,0.00,,---,0.12,VWS V13.01,2013-05-12 16:18:00,
2013-05-12 09:19:00,61.3,58.4,29.68,SSW,206,2.7,3.1,90,0.00,,---,0.12,VWS V13.01,2013-05-12 16:19:00,
2013-05-12 09:20:00,61.3,58.4,29.68,SSW,199,2.2,2.2,90,0.00,,---,0.12,VWS V13.01,2013-05-12 16:20:00,
2013-05-12 09:21:00,61.5,58.6,29.68,WSW,247,2.7,2.7,90,0.00,,---,0.12,VWS V13.01,2013-05-12 16:21:00,
2013-05-12 09:23:00,61.5,58.6,29.68,WSW,242,3.1,3.1,90,0.00,,---,0.12,VWS V13.01,2013-05-12 16:23:00,
2013-05-12 09:24:00,61.5,58.6,29.68,NW,310,3.6,3.6,90,0.00,,---,0.12,VWS V13.01,2013-05-12 16:24:00,
2013-05-12 09:25:00,61.5,58.6,29.68,SW,226,2.7,5.4,90,0.00,,---,0.12,VWS V13.01,2013-05-12 16:25:00,
2013-05-12 09:26:00,61.5,58.2,29.68,WNW,296,3.1,5.4,89,0.00,,---,0.12,VWS V13.01,2013-05-12 16:26:00,
2013-05-12 09:28:00,61.5,58.2,29.68,WSW,253,3.6,3.6,89,0.00,,---,0.12,VWS V13.01,2013-05-12 16:28:00,
2013-05-12 09:29:00,61.5,58.2,29.68,West,260,2.2,2.2,89,0.00,,---,0.12,VWS V13.01,2013-05-12 16:29:00,
2013-05-12 09:30:00,61.3,58.1,29.68,WNW,299,3.1,3.1,89,0.00,,---,0.12,VWS V13.01,2013-05-12 16:30:00,
2013-05-12 09:32:00,61.3,58.1,29.68,SW,219,3.6,4.9,89,0.00,,---,0.12,VWS V13.01,2013-05-12 16:32:00,
2013-05-12 09:33:00,61.3,58.1,29.68,West,276,0.0,0.0,89,0.00,,---,0.12,VWS V13.01,2013-05-12 16:33:00,
2013-05-12 09:34:00,61.3,58.1,29.68,SW,232,4.9,4.9,89,0.00,,---,0.12,VWS V13.01,2013-05-12 16:34:00,
2013-05-12 09:35:00,61.3,58.1,29.68,West,270,3.6,3.6,89,0.00,,---,0.12,VWS V13.01,2013-05-12 16:35:00,
2013-05-12 09:37:00,61.3,57.8,29.68,West,281,0.0,0.0,88,0.00,,---,0.12,VWS V13.01,2013-05-12 16:37:00,
2013-05-12 09:39:00,61.3,57.8,29.68,SW,223,2.2,3.1,88,0.00,,---,0.12,VWS V13.01,2013-05-12 16:39:00,
2013-05-12 09:40:00,61.5,57.9,29.68,SSW,207,5.4,6.3,88,0.00,,---,0.12,VWS V13.01,2013-05-12 16:40:00,
2013-05-12 09:42:00,61.5,57.9,29.68,WSW,241,2.7,4.9,88,0.00,,---,0.12,VWS V13.01,2013-05-12 16:42:00,
2013-05-12 09:44:00,61.3,57.8,29.68,WSW,241,3.6,3.6,88,0.00,,---,0.12,VWS V13.01,2013-05-12 16:44:00,
2013-05-12 09:45:00,61.3,57.8,29.68,WSW,241,3.6,3.6,88,0.00,,---,0.12,VWS V13.01,2013-05-12 16:45:00,
2013-05-12 09:47:00,61.3,57.4,29.68,WSW,241,3.6,3.6,87,0.00,,---,0.12,VWS V13.01,2013-05-12 16:47:00,
2013-05-12 09:49:00,61.3,57.4,29.68,WSW,242,5.8,5.8,87,0.00,,---,0.12,VWS V13.01,2013-05-12 16:49:00,
2013-05-12 09:50:00,61.3,57.4,29.68,WSW,242,5.8,5.8,87,0.00,,---,0.12,VWS V13.01,2013-05-12 16:50:00,
2013-05-12 09:52:00,61.3,57.4,29.68,SW,230,2.7,2.7,87,0.00,,---,0.12,VWS V13.01,2013-05-12 16:52:00,
2013-05-12 09:54:00,61.3,57.4,29.68,SW,220,0.0,0.0,87,0.00,,---,0.12,VWS V13.01,2013-05-12 16:54:00,
2013-05-12 09:55:00,61.3,57.4,29.68,SW,220,0.0,0.0,87,0.00,,---,0.12,VWS V13.01,2013-05-12 16:55:00,
2013-05-12 09:57:00,61.3,57.4,29.68,SW,226,3.1,3.1,87,0.00,,---,0.12,VWS V13.01,2013-05-12 16:57:00,
2013-05-12 09:59:00,61.7,57.5,29.68,SW,226,3.1,3.1,86,0.00,,---,0.12,VWS V13.01,2013-05-12 16:59:00,
2013-05-12 10:00:00,61.7,57.5,29.68,WNW,291,0.0,3.1,86,0.00,,---,0.12,VWS V13.01,2013-05-12 17:00:00,
2013-05-12 10:02:00,61.7,57.5,29.68,WNW,291,0.0,0.0,86,0.00,,---,0.12,VWS V13.01,2013-05-12 17:02:00,
2013-05-12 10:04:00,61.7,57.5,29.65,WNW,291,0.0,0.0,86,0.00,,---,0.12,VWS V13.01,2013-05-12 17:04:00,
2013-05-12 10:05:00,61.9,57.7,29.65,WNW,291,0.0,0.0,86,0.00,,---,0.12,VWS V13.01,2013-05-12 17:05:00,
2013-05-12 10:08:00,62.1,57.8,29.65,ESE,113,3.1,3.1,86,0.00,,---,0.12,VWS V13.01,2013-05-12 17:08:00,
2013-05-12 10:09:00,62.1,57.8,29.65,ESE,113,3.1,3.1,86,0.00,,---,0.12,VWS V13.01,2013-05-12 17:09:00,
2013-05-12 10:10:00,62.1,57.8,29.65,WSW,246,0.0,2.7,86,0.00,,---,0.12,VWS V13.01,2013-05-12 17:10:00,
2013-05-12 10:13:00,62.4,57.9,29.65,WSW,246,0.0,0.0,85,0.00,,---,0.12,VWS V13.01,2013-05-12 17:13:00,
2013-05-12 10:14:00,62.4,57.9,29.65,WSW,246,0.0,0.0,85,0.00,,---,0.12,VWS V13.01,2013-05-12 17:14:00,
2013-05-12 10:15:00,62.4,57.9,29.65,WSW,246,0.0,0.0,85,0.00,,---,0.12,VWS V13.01,2013-05-12 17:15:00,
2013-05-12 10:18:00,63.0,58.7,29.65,WSW,246,0.0,0.0,86,0.00,,---,0.12,VWS V13.01,2013-05-12 17:18:00,
2013-05-12 10:19:00,63.0,58.7,29.65,WSW,246,0.0,0.0,86,0.00,,---,0.12,VWS V13.01,2013-05-12 17:19:00,
2013-05-12 10:20:00,63.0,58.7,29.65,WSW,246,0.0,0.0,86,0.00,,---,0.12,VWS V13.01,2013-05-12 17:20:00,
2013-05-12 10:23:00,63.0,58.7,29.65,SSE,158,2.7,2.7,86,0.00,,---,0.12,VWS V13.01,2013-05-12 17:23:00,
2013-05-12 10:25:00,63.0,58.7,29.65,SE,144,0.0,0.0,86,0.00,,---,0.12,VWS V13.01,2013-05-12 17:25:00,
2013-05-12 10:26:00,63.5,58.9,29.65,SE,144,0.0,0.0,85,0.00,,---,0.12,VWS V13.01,2013-05-12 17:26:00,
2013-05-12 10:28:00,63.5,58.9,29.65,ENE,70,3.1,3.1,85,0.00,,---,0.12,VWS V13.01,2013-05-12 17:28:00,
2013-05-12 10:30:00,63.5,58.9,29.65,ENE,70,3.1,3.1,85,0.00,,---,0.12,VWS V13.01,2013-05-12 17:30:00,
2013-05-12 10:31:00,63.5,58.9,29.65,ENE,70,3.1,3.1,85,0.00,,---,0.12,VWS V13.01,2013-05-12 17:31:00,
2013-05-12 10:33:00,63.5,58.9,29.65,ENE,74,0.0,0.0,85,0.00,,---,0.12,VWS V13.01,2013-05-12 17:33:00,
2013-05-12 10:35:00,64.0,59.1,29.65,ENE,74,0.0,0.0,84,0.00,,---,0.12,VWS V13.01,2013-05-12 17:35:00,
2013-05-12 10:36:00,64.0,59.1,29.65,ENE,74,0.0,0.0,84,0.00,,---,0.12,VWS V13.01,2013-05-12 17:36:00,
2013-05-12 10:38:00,64.0,59.1,29.65,East,87,2.7,2.7,84,0.00,,---,0.12,VWS V13.01,2013-05-12 17:38:00,
2013-05-12 10:40:00,64.0,59.1,29.65,East,87,2.7,2.7,84,0.00,,---,0.12,VWS V13.01,2013-05-12 17:40:00,
2013-05-12 10:41:00,64.0,59.1,29.65,East,87,2.7,2.7,84,0.00,,---,0.12,VWS V13.01,2013-05-12 17:41:00,
2013-05-12 10:44:00,64.2,59.3,29.65,East,87,2.7,2.7,84,0.00,,---,0.12,VWS V13.01,2013-05-12 17:44:00,
2013-05-12 10:45:00,64.2,59.3,29.65,East,87,2.7,2.7,84,0.00,,---,0.12,VWS V13.01,2013-05-12 17:45:00,
2013-05-12 10:46:00,64.2,59.3,29.65,ENE,69,2.7,4.0,84,0.00,,---,0.12,VWS V13.01,2013-05-12 17:46:00,
2013-05-12 10:49:00,64.2,59.3,29.68,ENE,69,2.7,2.7,84,0.00,,---,0.12,VWS V13.01,2013-05-12 17:49:00,
2013-05-12 10:50:00,64.2,59.3,29.68,East,86,3.6,3.6,84,0.00,,---,0.12,VWS V13.01,2013-05-12 17:50:00,
2013-05-12 10:51:00,64.2,59.3,29.68,East,86,3.6,3.6,84,0.00,,---,0.12,VWS V13.01,2013-05-12 17:51:00,
2013-05-12 10:54:00,64.4,59.1,29.68,East,86,3.6,3.6,83,0.00,,---,0.12,VWS V13.01,2013-05-12 17:54:00,
2013-05-12 10:55:00,64.4,59.1,29.68,SE,144,3.6,3.6,83,0.00,,---,0.12,VWS V13.01,2013-05-12 17:55:00,
2013-05-12 10:56:00,64.4,59.1,29.68,SE,144,3.6,3.6,83,0.00,,---,0.12,VWS V13.01,2013-05-12 17:56:00,
2013-05-12 10:59:00,64.4,59.1,29.68,SE,144,3.6,3.6,83,0.00,,---,0.12,VWS V13.01,2013-05-12 17:59:00,
2013-05-12 11:00:00,64.4,59.1,29.68,East,88,0.0,0.0,83,0.00,,---,0.12,VWS V13.01,2013-05-12 18:00:00,
2013-05-12 11:01:00,64.4,59.1,29.68,East,88,0.0,0.0,83,0.00,,---,0.12,VWS V13.01,2013-05-12 18:01:00,
2013-05-12 11:02:00,65.1,59.8,29.65,East,88,0.0,0.0,83,0.00,,---,0.12,VWS V13.01,2013-05-12 18:02:00,
2013-05-12 11:04:00,65.1,59.8,29.65,SSE,150,3.1,3.1,83,0.00,,---,0.12,VWS V13.01,2013-05-12 18:04:00,
2013-05-12 11:06:00,65.1,59.8,29.65,ENE,69,2.7,2.7,83,0.00,,---,0.12,VWS V13.01,2013-05-12 18:06:00,
2013-05-12 11:07:00,65.5,59.8,29.65,ENE,69,2.7,2.7,82,0.00,,---,0.12,VWS V13.01,2013-05-12 18:07:00,
2013-05-12 11:09:00,65.5,59.8,29.65,ENE,69,2.7,2.7,82,0.00,,---,0.12,VWS V13.01,2013-05-12 18:09:00,
2013-05-12 11:11:00,65.7,60.0,29.65,ENE,69,2.7,2.7,82,0.00,,---,0.12,VWS V13.01,2013-05-12 18:11:00,
2013-05-12 11:12:00,65.7,60.0,29.65,ENE,69,2.7,2.7,82,0.00,,---,0.12,VWS V13.01,2013-05-12 18:12:00,
2013-05-12 11:14:00,65.7,60.0,29.65,East,82,2.7,2.7,82,0.00,,---,0.12,VWS V13.01,2013-05-12 18:14:00,
2013-05-12 11:16:00,65.7,60.0,29.65,East,82,2.7,2.7,82,0.00,,---,0.12,VWS V13.01,2013-05-12 18:16:00,
2013-05-12 11:17:00,65.7,60.0,29.65,SSE,159,0.0,0.0,82,0.00,,---,0.12,VWS V13.01,2013-05-12 18:17:00,
2013-05-12 11:19:00,65.7,60.0,29.65,SSE,159,0.0,0.0,82,0.00,,---,0.12,VWS V13.01,2013-05-12 18:19:00,
2013-05-12 11:21:00,65.8,59.8,29.65,SSE,159,0.0,0.0,81,0.00,,---,0.12,VWS V13.01,2013-05-12 18:21:00,
2013-05-12 11:22:00,65.8,59.8,29.65,SSE,159,0.0,0.0,81,0.00,,---,0.12,VWS V13.01,2013-05-12 18:22:00,
2013-05-12 11:24:00,65.8,59.8,29.65,SSW,199,0.0,0.0,81,0.00,,---,0.12,VWS V13.01,2013-05-12 18:24:00,
2013-05-12 11:26:00,65.8,59.8,29.65,ENE,57,0.0,0.0,81,0.00,,---,0.12,VWS V13.01,2013-05-12 18:26:00,
2013-05-12 11:27:00,65.8,59.8,29.65,ENE,57,0.0,0.0,81,0.00,,---,0.12,VWS V13.01,2013-05-12 18:27:00,
2013-05-12 11:29:00,66.2,59.9,29.65,NE,55,3.6,3.6,80,0.00,,---,0.12,VWS V13.01,2013-05-12 18:29:00,
2013-05-12 11:31:00,66.2,59.9,29.65,East,89,2.2,2.2,80,0.00,,---,0.12,VWS V13.01,2013-05-12 18:31:00,
2013-05-12 11:32:00,66.2,59.9,29.65,NE,38,2.7,2.7,80,0.00,,---,0.12,VWS V13.01,2013-05-12 18:32:00,
2013-05-12 11:34:00,66.2,59.9,29.65,NE,38,2.7,2.7,80,0.00,,---,0.12,VWS V13.01,2013-05-12 18:34:00,
2013-05-12 11:36:00,66.2,59.9,29.65,NE,38,2.7,2.7,80,0.00,,---,0.12,VWS V13.01,2013-05-12 18:36:00,
2013-05-12 11:37:00,66.6,59.8,29.65,NE,38,2.7,2.7,79,0.00,,---,0.12,VWS V13.01,2013-05-12 18:37:00,
2013-05-12 11:40:00,66.7,60.0,29.65,West,267,2.7,2.7,79,0.00,,---,0.12,VWS V13.01,2013-05-12 18:40:00,
2013-05-12 11:41:00,66.7,60.0,29.65,SE,138,2.2,2.2,79,0.00,,---,0.12,VWS V13.01,2013-05-12 18:41:00,
2013-05-12 11:42:00,66.7,60.0,29.65,SE,138,2.2,2.2,79,0.00,,---,0.12,VWS V13.01,2013-05-12 18:42:00,
2013-05-12 11:45:00,66.7,60.0,29.65,ENE,58,2.7,2.7,79,0.00,,---,0.12,VWS V13.01,2013-05-12 18:45:00,
2013-05-12 11:46:00,66.7,60.0,29.65,ENE,58,2.7,2.7,79,0.00,,---,0.12,VWS V13.01,2013-05-12 18:46:00,
2013-05-12 11:47:00,66.7,60.0,29.65,ENE,58,2.7,2.7,79,0.00,,---,0.12,VWS V13.01,2013-05-12 18:47:00,
2013-05-12 11:50:00,67.5,60.4,29.65,East,81,3.1,3.1,78,0.00,,---,0.12,VWS V13.01,2013-05-12 18:50:00,
2013-05-12 11:52:00,67.5,60.0,29.65,East,81,3.1,3.1,77,0.00,,---,0.12,VWS V13.01,2013-05-12 18:52:00,
2013-05-12 11:55:00,67.5,60.0,29.65,ESE,110,0.0,0.0,77,0.00,,---,0.12,VWS V13.01,2013-05-12 18:55:00,
2013-05-12 11:57:00,67.5,59.6,29.65,South,169,0.0,0.0,76,0.00,,---,0.12,VWS V13.01,2013-05-12 18:57:00,
2013-05-12 11:58:00,67.5,59.6,29.65,South,169,0.0,0.0,76,0.00,,---,0.12,VWS V13.01,2013-05-12 18:58:00,
2013-05-12 12:00:00,67.5,59.6,29.65,SSE,157,2.7,2.7,76,0.00,,---,0.12,VWS V13.01,2013-05-12 19:00:00,
2013-05-12 12:02:00,67.5,59.6,29.65,SSE,157,2.7,2.7,76,0.00,,---,0.12,VWS V13.01,2013-05-12 19:02:00,
2013-05-12 12:03:00,67.5,59.6,29.65,SSE,157,2.7,2.7,76,0.00,,---,0.12,VWS V13.01,2013-05-12 19:03:00,
2013-05-12 12:05:00,67.3,59.1,29.65,SSE,157,2.7,2.7,75,0.00,,---,0.12,VWS V13.01,2013-05-12 19:05:00,
2013-05-12 12:07:00,67.3,59.1,29.65,East,99,3.6,3.6,75,0.00,,---,0.12,VWS V13.01,2013-05-12 19:07:00,
2013-05-12 12:08:00,67.3,59.1,29.65,East,99,3.6,3.6,75,0.00,,---,0.12,VWS V13.01,2013-05-12 19:08:00,
2013-05-12 12:10:00,67.3,59.1,29.65,South,169,3.1,3.1,75,0.00,,---,0.12,VWS V13.01,2013-05-12 19:10:00,
2013-05-12 12:12:00,67.3,59.1,29.65,South,169,3.1,3.1,75,0.00,,---,0.12,VWS V13.01,2013-05-12 19:12:00,
2013-05-12 12:13:00,67.3,59.1,29.65,South,169,3.1,3.1,75,0.00,,---,0.12,VWS V13.01,2013-05-12 19:13:00,
2013-05-12 12:15:00,66.9,58.4,29.65,South,169,3.1,3.1,74,0.00,,---,0.12,VWS V13.01,2013-05-12 19:15:00,
2013-05-12 12:17:00,66.9,58.4,29.65,ESE,111,0.0,3.1,74,0.00,,---,0.12,VWS V13.01,2013-05-12 19:17:00,
2013-05-12 12:18:00,66.9,58.4,29.65,ESE,111,0.0,3.1,74,0.00,,---,0.12,VWS V13.01,2013-05-12 19:18:00,
2013-05-12 12:20:00,66.9,58.4,29.65,SE,144,0.0,0.0,74,0.00,,---,0.12,VWS V13.01,2013-05-12 19:20:00,
2013-05-12 12:22:00,66.9,58.4,29.65,SE,144,0.0,0.0,74,0.00,,---,0.12,VWS V13.01,2013-05-12 19:22:00,
2013-05-12 12:23:00,66.9,58.4,29.65,SE,144,0.0,0.0,74,0.00,,---,0.12,VWS V13.01,2013-05-12 19:23:00,
2013-05-12 12:24:00,66.6,58.4,29.65,SW,225,4.0,4.0,75,0.00,,---,0.12,VWS V13.01,2013-05-12 19:24:00,
2013-05-12 12:26:00,66.6,58.4,29.65,SW,220,3.1,4.0,75,0.00,,---,0.12,VWS V13.01,2013-05-12 19:26:00,
2013-05-12 12:27:00,66.6,58.4,29.65,SW,220,3.1,3.1,75,0.00,,---,0.12,VWS V13.01,2013-05-12 19:27:00,
2013-05-12 12:28:00,66.6,58.4,29.65,SW,220,3.1,3.1,75,0.00,,---,0.12,VWS V13.01,2013-05-12 19:28:00,
2013-05-12 12:29:00,66.6,58.4,29.65,SW,220,3.1,3.1,75,0.00,,---,0.12,VWS V13.01,2013-05-12 19:29:00,
2013-05-12 12:31:00,66.6,58.4,29.68,SE,143,0.0,0.0,75,0.00,,---,0.12,VWS V13.01,2013-05-12 19:31:00,
2013-05-12 12:33:00,66.6,59.1,29.68,SE,143,0.0,0.0,77,0.00,,---,0.12,VWS V13.01,2013-05-12 19:33:00,
2013-05-12 12:34:00,66.6,59.1,29.68,SE,128,0.0,0.0,77,0.00,,---,0.12,VWS V13.01,2013-05-12 19:34:00,
2013-05-12 12:37:00,66.6,59.1,29.68,West,268,0.0,2.7,77,0.00,,---,0.12,VWS V13.01,2013-05-12 19:37:00,
2013-05-12 12:38:00,66.6,59.1,29.68,West,268,0.0,0.0,77,0.00,,---,0.12,VWS V13.01,2013-05-12 19:38:00,
2013-05-12 12:39:00,66.4,59.0,29.68,West,268,0.0,0.0,77,0.00,,---,0.12,VWS V13.01,2013-05-12 19:39:00,
2013-05-12 12:42:00,66.6,59.1,29.68,West,268,0.0,0.0,77,0.00,,---,0.12,VWS V13.01,2013-05-12 19:42:00,
2013-05-12 12:43:00,66.6,59.1,29.68,West,268,0.0,0.0,77,0.00,,---,0.12,VWS V13.01,2013-05-12 19:43:00,
2013-05-12 12:44:00,66.6,59.1,29.68,West,268,0.0,0.0,77,0.00,,---,0.12,VWS V13.01,2013-05-12 19:44:00,
2013-05-12 12:47:00,66.6,59.1,29.68,WNW,287,2.2,2.2,77,0.00,,---,0.12,VWS V13.01,2013-05-12 19:47:00,
2013-05-12 12:48:00,66.6,59.1,29.65,WNW,287,2.2,2.2,77,0.00,,---,0.12,VWS V13.01,2013-05-12 19:48:00,
2013-05-12 12:49:00,66.6,59.1,29.65,WNW,287,2.2,2.2,77,0.00,,---,0.12,VWS V13.01,2013-05-12 19:49:00,
2013-05-12 12:52:00,66.9,57.2,29.65,South,184,3.1,3.1,71,0.00,,---,0.12,VWS V13.01,2013-05-12 19:52:00,
2013-05-12 12:53:00,66.9,57.2,29.65,WSW,249,4.0,4.0,71,0.00,,---,0.12,VWS V13.01,2013-05-12 19:53:00,
2013-05-12 12:54:00,66.9,57.2,29.65,SW,214,4.0,4.0,71,0.00,,---,0.12,VWS V13.01,2013-05-12 19:54:00,
2013-05-12 12:57:00,66.9,57.2,29.65,SW,214,4.0,4.0,71,0.00,,---,0.12,VWS V13.01,2013-05-12 19:57:00,
2013-05-12 12:58:00,66.9,57.2,29.65,SW,214,4.0,4.0,71,0.00,,---,0.12,VWS V13.01,2013-05-12 19:58:00,
2013-05-12 12:59:00,66.9,57.2,29.65,NW,315,2.7,4.0,71,0.00,,---,0.12,VWS V13.01,2013-05-12 19:59:00,
2013-05-12 13:00:00,66.9,57.2,29.65,NW,315,2.7,2.7,71,0.00,,---,0.12,VWS V13.01,2013-05-12 20:00:00,
2013-05-12 13:02:00,67.1,57.0,29.65,SSE,165,2.7,2.7,70,0.00,,---,0.12,VWS V13.01,2013-05-12 20:02:00,
2013-05-12 13:04:00,67.1,57.0,29.65,West,270,0.0,2.7,70,0.00,,---,0.12,VWS V13.01,2013-05-12 20:04:00,
2013-05-12 13:05:00,67.3,57.2,29.65,West,270,0.0,0.0,70,0.00,,---,0.12,VWS V13.01,2013-05-12 20:05:00,
2013-05-12 13:08:00,67.3,57.2,29.65,SSE,160,2.7,2.7,70,0.00,,---,0.12,VWS V13.01,2013-05-12 20:08:00,
2013-05-12 13:09:00,67.1,57.0,29.65,SSE,160,2.7,2.7,70,0.00,,---,0.12,VWS V13.01,2013-05-12 20:09:00,
2013-05-12 13:10:00,67.1,57.0,29.65,SSE,160,2.7,2.7,70,0.00,,---,0.12,VWS V13.01,2013-05-12 20:10:00,
2013-05-12 13:13:00,67.1,57.0,29.65,ESE,106,2.7,2.7,70,0.00,,---,0.12,VWS V13.01,2013-05-12 20:13:00,
2013-05-12 13:14:00,67.1,57.0,29.65,ESE,106,2.7,2.7,70,0.00,,---,0.12,VWS V13.01,2013-05-12 20:14:00,
2013-05-12 13:15:00,67.1,57.0,29.65,ESE,106,2.7,2.7,70,0.00,,---,0.12,VWS V13.01,2013-05-12 20:15:00,
2013-05-12 13:18:00,67.1,57.0,29.65,SW,231,2.7,2.7,70,0.00,,---,0.12,VWS V13.01,2013-05-12 20:18:00,
2013-05-12 13:19:00,66.9,56.8,29.65,SW,231,2.7,2.7,70,0.00,,---,0.12,VWS V13.01,2013-05-12 20:19:00,
2013-05-12 13:20:00,66.9,56.8,29.65,SW,231,2.7,2.7,70,0.00,,---,0.12,VWS V13.01,2013-05-12 20:20:00,
2013-05-12 13:23:00,66.9,56.8,29.65,East,81,0.0,0.0,70,0.00,,---,0.12,VWS V13.01,2013-05-12 20:23:00,
2013-05-12 13:24:00,66.9,56.8,29.65,East,81,0.0,0.0,70,0.00,,---,0.12,VWS V13.01,2013-05-12 20:24:00,
2013-05-12 13:25:00,66.9,56.8,29.65,East,81,0.0,0.0,70,0.00,,---,0.12,VWS V13.01,2013-05-12 20:25:00,
2013-05-12 13:29:00,67.1,57.0,29.65,WNW,300,2.2,2.2,70,0.00,,---,0.12,VWS V13.01,2013-05-12 20:29:00,
2013-05-12 13:30:00,67.1,57.0,29.65,WNW,300,2.2,2.2,70,0.00,,---,0.12,VWS V13.01,2013-05-12 20:30:00,
2013-05-12 13:34:00,67.1,57.0,29.65,NNE,31,0.0,0.0,70,0.00,,---,0.12,VWS V13.01,2013-05-12 20:34:00,
2013-05-12 13:35:00,67.1,57.0,29.65,NNE,31,0.0,0.0,70,0.00,,---,0.12,VWS V13.01,2013-05-12 20:35:00,
2013-05-12 13:39:00,67.6,57.5,29.65,WNW,286,2.2,2.7,70,0.00,,---,0.12,VWS V13.01,2013-05-12 20:39:00,
2013-05-12 13:40:00,67.6,57.5,29.65,WNW,286,2.2,2.2,70,0.00,,---,0.12,VWS V13.01,2013-05-12 20:40:00,
2013-05-12 13:41:00,67.6,57.5,29.65,WNW,286,2.2,2.2,70,0.00,,---,0.12,VWS V13.01,2013-05-12 20:41:00,
2013-05-12 13:44:00,67.6,57.5,29.65,West,262,2.7,2.7,70,0.00,,---,0.12,VWS V13.01,2013-05-12 20:44:00,
2013-05-12 13:45:00,67.6,57.5,29.65,West,262,2.7,2.7,70,0.00,,---,0.12,VWS V13.01,2013-05-12 20:45:00,
2013-05-12 13:46:00,67.6,57.5,29.65,West,262,2.7,2.7,70,0.00,,---,0.12,VWS V13.01,2013-05-12 20:46:00,
2013-05-12 13:49:00,67.6,57.5,29.65,WSW,237,3.1,3.1,70,0.00,,---,0.12,VWS V13.01,2013-05-12 20:49:00,
2013-05-12 13:50:00,67.6,57.5,29.65,WSW,237,3.1,3.1,70,0.00,,---,0.12,VWS V13.01,2013-05-12 20:50:00,
2013-05-12 13:51:00,67.6,57.5,29.65,WSW,237,3.1,3.1,70,0.00,,---,0.12,VWS V13.01,2013-05-12 20:51:00,
2013-05-12 13:54:00,67.8,57.7,29.65,SW,221,0.0,0.0,70,0.00,,---,0.12,VWS V13.01,2013-05-12 20:54:00,
2013-05-12 13:55:00,67.8,57.7,29.65,SW,221,0.0,0.0,70,0.00,,---,0.12,VWS V13.01,2013-05-12 20:55:00,
2013-05-12 13:56:00,67.8,57.7,29.65,SW,221,0.0,0.0,70,0.00,,---,0.12,VWS V13.01,2013-05-12 20:56:00,
2013-05-12 13:59:00,67.8,57.7,29.65,West,279,4.0,4.0,70,0.00,,---,0.12,VWS V13.01,2013-05-12 20:59:00,
2013-05-12 14:00:00,67.8,57.7,29.65,West,279,4.0,4.0,70,0.00,,---,0.12,VWS V13.01,2013-05-12 21:00:00,
2013-05-12 14:01:00,67.8,57.7,29.65,West,279,4.0,4.0,70,0.00,,---,0.12,VWS V13.01,2013-05-12 21:01:00,
2013-05-12 14:04:00,68.4,57.8,29.65,West,279,4.0,4.0,69,0.00,,---,0.12,VWS V13.01,2013-05-12 21:04:00,
2013-05-12 14:05:00,68.4,57.8,29.65,West,279,4.0,4.0,69,0.00,,---,0.12,VWS V13.01,2013-05-12 21:05:00,
2013-05-12 14:06:00,68.4,57.8,29.65,West,276,4.0,4.0,69,0.00,,---,0.12,VWS V13.01,2013-05-12 21:06:00,
2013-05-12 14:09:00,68.4,57.8,29.65,West,265,5.8,5.8,69,0.00,,---,0.12,VWS V13.01,2013-05-12 21:09:00,
2013-05-12 14:10:00,68.4,57.8,29.65,SW,232,5.8,5.8,69,0.00,,---,0.12,VWS V13.01,2013-05-12 21:10:00,
2013-05-12 14:11:00,68.4,57.8,29.65,SW,232,5.8,5.8,69,0.00,,---,0.12,VWS V13.01,2013-05-12 21:11:00,
2013-05-12 14:15:00,68.5,57.2,29.65,WSW,241,0.0,0.0,67,0.00,,---,0.12,VWS V13.01,2013-05-12 21:15:00,
2013-05-12 14:16:00,68.5,57.2,29.65,WSW,240,2.7,2.7,67,0.00,,---,0.12,VWS V13.01,2013-05-12 21:16:00,
2013-05-12 14:17:00,68.5,57.2,29.65,WSW,240,2.7,2.7,67,0.00,,---,0.12,VWS V13.01,2013-05-12 21:17:00,
2013-05-12 14:20:00,68.5,57.2,29.65,NNE,17,2.7,2.7,67,0.00,,---,0.12,VWS V13.01,2013-05-12 21:20:00,
2013-05-12 14:21:00,68.5,57.2,29.65,NNE,17,2.7,2.7,67,0.00,,---,0.12,VWS V13.01,2013-05-12 21:21:00,
2013-05-12 14:22:00,69.6,58.2,29.65,NNE,17,2.7,2.7,67,0.00,,---,0.12,VWS V13.01,2013-05-12 21:22:00,
2013-05-12 14:25:00,69.6,58.2,29.65,SW,236,2.2,2.7,67,0.00,,---,0.12,VWS V13.01,2013-05-12 21:25:00,
2013-05-12 14:26:00,69.6,58.2,29.65,SW,236,2.2,2.2,67,0.00,,---,0.12,VWS V13.01,2013-05-12 21:26:00,
2013-05-12 14:27:00,69.6,58.2,29.65,SW,236,2.2,2.2,67,0.00,,---,0.12,VWS V13.01,2013-05-12 21:27:00,
2013-05-12 14:30:00,69.6,58.2,29.65,SW,236,2.2,2.2,67,0.00,,---,0.12,VWS V13.01,2013-05-12 21:30:00,
2013-05-12 14:31:00,70.7,58.8,29.65,SW,236,2.2,2.2,66,0.00,,---,0.12,VWS V13.01,2013-05-12 21:31:00,
2013-05-12 14:32:00,70.7,58.8,29.65,SSE,158,4.0,4.0,66,0.00,,---,0.12,VWS V13.01,2013-05-12 21:32:00,
2013-05-12 14:35:00,70.7,58.8,29.65,West,277,2.7,2.7,66,0.00,,---,0.12,VWS V13.01,2013-05-12 21:35:00,
2013-05-12 14:36:00,70.7,58.8,29.65,West,277,2.7,2.7,66,0.00,,---,0.12,VWS V13.01,2013-05-12 21:36:00,
2013-05-12 14:37:00,70.7,58.8,29.65,West,260,6.3,6.3,66,0.00,,---,0.12,VWS V13.01,2013-05-12 21:37:00,
2013-05-12 14:38:00,70.7,58.8,29.65,West,260,6.3,6.3,66,0.00,,---,0.12,VWS V13.01,2013-05-12 21:38:00,
2013-05-12 14:40:00,70.7,57.1,29.65,West,260,6.3,6.3,62,0.00,,---,0.12,VWS V13.01,2013-05-12 21:40:00,
2013-05-12 14:41:00,70.7,57.1,29.65,West,260,6.3,6.3,62,0.00,,---,0.12,VWS V13.01,2013-05-12 21:41:00,
2013-05-12 14:42:00,70.7,57.1,29.65,West,260,6.3,6.3,62,0.00,,---,0.12,VWS V13.01,2013-05-12 21:42:00,
2013-05-12 14:43:00,71.1,57.8,29.65,SSE,166,0.0,0.0,63,0.00,,---,0.12,VWS V13.01,2013-05-12 21:43:00,
2013-05-12 14:45:00,71.1,57.8,29.65,West,260,6.3,6.3,63,0.00,,---,0.12,VWS V13.01,2013-05-12 21:45:00,
2013-05-12 14:46:00,71.1,57.8,29.65,West,260,6.3,6.3,63,0.00,,---,0.12,VWS V13.01,2013-05-12 21:46:00,
2013-05-12 14:47:00,71.1,57.8,29.65,West,260,6.3,6.3,63,0.00,,---,0.12,VWS V13.01,2013-05-12 21:47:00,
2013-05-12 14:49:00,71.1,57.8,29.65,West,260,6.3,6.3,63,0.00,,---,0.12,VWS V13.01,2013-05-12 21:49:00,
2013-05-12 14:50:00,70.7,57.1,29.65,SW,228,3.1,3.1,62,0.00,,---,0.12,VWS V13.01,2013-05-12 21:50:00,
2013-05-12 14:51:00,70.7,57.1,29.65,SW,228,3.1,3.1,62,0.00,,---,0.12,VWS V13.01,2013-05-12 21:51:00,
2013-05-12 14:52:00,70.7,57.1,29.65,SW,217,3.6,3.6,62,0.00,,---,0.12,VWS V13.01,2013-05-12 21:52:00,
2013-05-12 14:54:00,70.7,57.1,29.65,SW,217,3.6,3.6,62,0.00,,---,0.12,VWS V13.01,2013-05-12 21:54:00,
2013-05-12 14:56:00,70.7,57.1,29.65,SW,217,3.6,3.6,62,0.00,,---,0.12,VWS V13.01,2013-05-12 21:56:00,
2013-05-12 14:57:00,70.7,57.1,29.65,SW,217,3.6,3.6,62,0.00,,---,0.12,VWS V13.01,2013-05-12 21:57:00,
2013-05-12 14:59:00,71.2,57.1,29.65,ENE,57,3.1,3.1,61,0.00,,---,0.12,VWS V13.01,2013-05-12 21:59:00,
2013-05-12 15:01:00,71.2,57.1,29.65,SSW,205,2.2,2.2,61,0.00,,---,0.12,VWS V13.01,2013-05-12 22:01:00,
2013-05-12 15:02:00,71.2,57.1,29.65,SSW,205,2.2,2.2,61,0.00,,---,0.12,VWS V13.01,2013-05-12 22:02:00,
2013-05-12 15:04:00,71.2,57.1,29.65,West,267,5.4,5.4,61,0.00,,---,0.12,VWS V13.01,2013-05-12 22:04:00,
2013-05-12 15:06:00,71.2,57.1,29.65,South,180,3.6,3.6,61,0.00,,---,0.12,VWS V13.01,2013-05-12 22:06:00,
2013-05-12 15:07:00,71.2,57.1,29.65,South,180,3.6,3.6,61,0.00,,---,0.12,VWS V13.01,2013-05-12 22:07:00,
2013-05-12 15:09:00,71.6,57.0,29.65,South,180,3.6,3.6,60,0.00,,---,0.12,VWS V13.01,2013-05-12 22:09:00,
2013-05-12 15:11:00,72.0,56.9,29.65,SSE,159,0.0,0.0,59,0.00,,---,0.12,VWS V13.01,2013-05-12 22:11:00,
2013-05-12 15:12:00,72.0,56.9,29.65,West,264,0.0,0.0,59,0.00,,---,0.12,VWS V13.01,2013-05-12 22:12:00,
2013-05-12 15:14:00,72.0,56.9,29.65,West,264,0.0,0.0,59,0.00,,---,0.12,VWS V13.01,2013-05-12 22:14:00,
2013-05-12 15:16:00,72.0,56.9,29.65,West,276,6.3,6.3,59,0.00,,---,0.12,VWS V13.01,2013-05-12 22:16:00,
2013-05-12 15:17:00,71.2,55.2,29.65,West,276,6.3,6.3,57,0.00,,---,0.12,VWS V13.01,2013-05-12 22:17:00,
2013-05-12 15:19:00,71.2,55.2,29.65,WSW,248,3.1,3.1,57,0.00,,---,0.12,VWS V13.01,2013-05-12 22:19:00,
2013-05-12 15:21:00,71.2,55.2,29.65,WSW,248,3.1,3.1,57,0.00,,---,0.12,VWS V13.01,2013-05-12 22:21:00,
2013-05-12 15:22:00,71.2,55.2,29.65,WSW,248,3.1,3.1,57,0.00,,---,0.12,VWS V13.01,2013-05-12 22:22:00,
2013-05-12 15:23:00,71.2,55.2,29.65,WSW,248,3.1,3.1,57,0.00,,---,0.12,VWS V13.01,2013-05-12 22:23:00,
2013-05-12 15:25:00,71.2,55.2,29.65,WSW,248,3.1,3.1,57,0.00,,---,0.12,VWS V13.01,2013-05-12 22:25:00,
2013-05-12 15:26:00,72.1,56.6,29.65,West,271,6.3,6.3,58,0.00,,---,0.12,VWS V13.01,2013-05-12 22:26:00,
2013-05-12 15:27:00,72.1,56.6,29.65,West,271,6.3,6.3,58,0.00,,---,0.12,VWS V13.01,2013-05-12 22:27:00,
2013-05-12 15:28:00,72.1,56.6,29.65,West,271,6.3,6.3,58,0.00,,---,0.12,VWS V13.01,2013-05-12 22:28:00,
2013-05-12 15:30:00,72.1,56.6,29.65,WNW,293,3.1,5.4,58,0.00,,---,0.12,VWS V13.01,2013-05-12 22:30:00,
2013-05-12 15:31:00,72.1,56.6,29.65,WNW,293,3.1,3.1,58,0.00,,---,0.12,VWS V13.01,2013-05-12 22:31:00,
2013-05-12 15:32:00,72.1,56.6,29.65,WNW,293,3.1,3.1,58,0.00,,---,0.12,VWS V13.01,2013-05-12 22:32:00,
2013-05-12 15:33:00,72.1,55.6,29.62,WNW,293,3.1,3.1,56,0.00,,---,0.12,VWS V13.01,2013-05-12 22:33:00,
2013-05-12 15:35:00,72.0,55.4,29.62,WNW,293,3.1,3.1,56,0.00,,---,0.12,VWS V13.01,2013-05-12 22:35:00,
2013-05-12 15:36:00,72.0,55.4,29.62,WNW,293,3.1,3.1,56,0.00,,---,0.12,VWS V13.01,2013-05-12 22:36:00,
2013-05-12 15:37:00,72.0,55.4,29.62,WNW,293,3.1,3.1,56,0.00,,---,0.12,VWS V13.01,2013-05-12 22:37:00,
2013-05-12 15:38:00,72.0,55.4,29.62,SE,125,0.0,3.1,56,0.00,,---,0.12,VWS V13.01,2013-05-12 22:38:00,
2013-05-12 15:40:00,72.0,55.4,29.62,West,268,5.4,5.4,56,0.00,,---,0.12,VWS V13.01,2013-05-12 22:40:00,
2013-05-12 15:41:00,72.5,56.4,29.62,West,268,5.4,5.4,57,0.00,,---,0.12,VWS V13.01,2013-05-12 22:41:00,
2013-05-12 15:42:00,72.5,56.4,29.62,West,268,5.4,5.4,57,0.00,,---,0.12,VWS V13.01,2013-05-12 22:42:00,
2013-05-12 15:43:00,72.5,56.4,29.62,South,186,3.1,5.4,57,0.00,,---,0.12,VWS V13.01,2013-05-12 22:43:00,
2013-05-12 15:45:00,72.9,56.8,29.62,South,186,3.1,3.1,57,0.00,,---,0.12,VWS V13.01,2013-05-12 22:45:00,
2013-05-12 15:47:00,72.9,56.8,29.62,West,266,7.6,7.6,57,0.00,,---,0.12,VWS V13.01,2013-05-12 22:47:00,
2013-05-12 15:48:00,72.9,56.8,29.62,West,266,7.6,7.6,57,0.00,,---,0.12,VWS V13.01,2013-05-12 22:48:00,
2013-05-12 15:50:00,72.9,56.8,29.62,SW,219,0.0,0.0,57,0.00,,---,0.12,VWS V13.01,2013-05-12 22:50:00,
2013-05-12 15:52:00,72.9,56.8,29.62,South,174,4.0,4.0,57,0.00,,---,0.12,VWS V13.01,2013-05-12 22:52:00,
2013-05-12 15:53:00,73.0,56.9,29.62,South,174,4.0,4.0,57,0.00,,---,0.12,VWS V13.01,2013-05-12 22:53:00,
2013-05-12 15:55:00,73.0,56.9,29.62,SW,225,8.3,8.3,57,0.00,,---,0.12,VWS V13.01,2013-05-12 22:55:00,
2013-05-12 15:57:00,73.0,56.9,29.62,SSW,212,2.7,2.7,57,0.00,,---,0.12,VWS V13.01,2013-05-12 22:57:00,
2013-05-12 15:58:00,73.4,56.8,29.62,SSW,212,2.7,2.7,56,0.00,,---,0.12,VWS V13.01,2013-05-12 22:58:00,
2013-05-12 15:59:00,73.4,56.8,29.62,SSW,212,2.7,2.7,56,0.00,,---,0.12,VWS V13.01,2013-05-12 22:59:00,
2013-05-12 16:00:00,73.4,56.8,29.62,SSW,212,2.7,2.7,56,0.00,,---,0.12,VWS V13.01,2013-05-12 23:00:00,
2013-05-12 16:02:00,73.4,56.8,29.62,SSW,212,2.7,2.7,56,0.00,,---,0.12,VWS V13.01,2013-05-12 23:02:00,
2013-05-12 16:03:00,73.0,55.9,29.62,SSW,212,2.7,2.7,55,0.00,,---,0.12,VWS V13.01,2013-05-12 23:03:00,
2013-05-12 16:04:00,73.0,55.9,29.62,SSW,212,2.7,2.7,55,0.00,,---,0.12,VWS V13.01,2013-05-12 23:04:00,
2013-05-12 16:05:00,73.0,55.9,29.62,WSW,240,0.0,3.1,55,0.00,,---,0.12,VWS V13.01,2013-05-12 23:05:00,
2013-05-12 16:07:00,73.0,55.9,29.62,WSW,240,0.0,0.0,55,0.00,,---,0.12,VWS V13.01,2013-05-12 23:07:00,
2013-05-12 16:08:00,73.0,55.9,29.62,WSW,240,0.0,0.0,55,0.00,,---,0.12,VWS V13.01,2013-05-12 23:08:00,
2013-05-12 16:09:00,73.0,55.9,29.62,WSW,240,0.0,0.0,55,0.00,,---,0.12,VWS V13.01,2013-05-12 23:09:00,
2013-05-12 16:10:00,73.0,55.9,29.62,WNW,286,0.0,2.7,55,0.00,,---,0.12,VWS V13.01,2013-05-12 23:10:00,
2013-05-12 16:12:00,73.0,56.9,29.62,WNW,286,0.0,0.0,57,0.00,,---,0.12,VWS V13.01,2013-05-12 23:12:00,
2013-05-12 16:13:00,73.0,56.9,29.62,WNW,286,0.0,0.0,57,0.00,,---,0.12,VWS V13.01,2013-05-12 23:13:00,
2013-05-12 16:14:00,73.0,56.9,29.62,West,273,2.7,2.7,57,0.00,,---,0.12,VWS V13.01,2013-05-12 23:14:00,
2013-05-12 16:15:00,73.0,56.9,29.62,West,273,2.7,2.7,57,0.00,,---,0.12,VWS V13.01,2013-05-12 23:15:00,
2013-05-12 16:17:00,73.0,56.9,29.62,West,273,2.7,2.7,57,0.00,,---,0.12,VWS V13.01,2013-05-12 23:17:00,
2013-05-12 16:18:00,73.0,56.9,29.62,West,273,2.7,2.7,57,0.00,,---,0.12,VWS V13.01,2013-05-12 23:18:00,
2013-05-12 16:19:00,73.0,56.9,29.62,West,274,6.3,6.3,57,0.00,,---,0.12,VWS V13.01,2013-05-12 23:19:00,
2013-05-12 16:21:00,72.5,55.4,29.62,West,274,6.3,6.3,55,0.00,,---,0.12,VWS V13.01,2013-05-12 23:21:00,
2013-05-12 16:22:00,72.5,55.9,29.62,South,183,0.0,0.0,56,0.00,,---,0.12,VWS V13.01,2013-05-12 23:22:00,
2013-05-12 16:23:00,72.5,55.9,29.62,WSW,257,4.0,4.0,56,0.00,,---,0.12,VWS V13.01,2013-05-12 23:23:00,
2013-05-12 16:24:00,72.5,55.9,29.62,WSW,243,3.1,3.1,56,0.00,,---,0.12,VWS V13.01,2013-05-12 23:24:00,
2013-05-12 16:26:00,72.5,55.9,29.62,WSW,243,3.1,3.1,56,0.00,,---,0.12,VWS V13.01,2013-05-12 23:26:00,
2013-05-12 16:27:00,72.5,55.9,29.62,WSW,243,3.1,3.1,56,0.00,,---,0.12,VWS V13.01,2013-05-12 23:27:00,
2013-05-12 16:28:00,72.5,55.9,29.62,WSW,243,3.1,3.1,56,0.00,,---,0.12,VWS V13.01,2013-05-12 23:28:00,
2013-05-12 16:30:00,71.8,54.8,29.62,WSW,243,3.1,3.1,55,0.00,,---,0.12,VWS V13.01,2013-05-12 23:30:00,
2013-05-12 16:31:00,71.8,54.8,29.62,WSW,243,3.1,3.1,55,0.00,,---,0.12,VWS V13.01,2013-05-12 23:31:00,
2013-05-12 16:32:00,71.8,54.8,29.62,WNW,295,2.7,2.7,55,0.00,,---,0.12,VWS V13.01,2013-05-12 23:32:00,
2013-05-12 16:33:00,71.8,54.8,29.62,WNW,295,2.7,2.7,55,0.00,,---,0.12,VWS V13.01,2013-05-12 23:33:00,
2013-05-12 16:35:00,71.8,54.8,29.62,WNW,295,2.7,2.7,55,0.00,,---,0.12,VWS V13.01,2013-05-12 23:35:00,
2013-05-12 16:36:00,71.8,54.8,29.62,WNW,295,2.7,2.7,55,0.00,,---,0.12,VWS V13.01,2013-05-12 23:36:00,
2013-05-12 16:37:00,71.8,54.8,29.62,SW,216,2.2,2.2,55,0.00,,---,0.12,VWS V13.01,2013-05-12 23:37:00,
2013-05-12 16:38:00,72.0,55.9,29.62,SW,216,2.2,2.2,57,0.00,,---,0.12,VWS V13.01,2013-05-12 23:38:00,
2013-05-12 16:40:00,72.0,55.9,29.62,SW,216,2.2,2.2,57,0.00,,---,0.12,VWS V13.01,2013-05-12 23:40:00,
2013-05-12 16:41:00,72.0,55.9,29.62,WSW,240,0.0,2.2,57,0.00,,---,0.12,VWS V13.01,2013-05-12 23:41:00,
2013-05-12 16:42:00,72.0,55.9,29.62,WSW,240,0.0,0.0,57,0.00,,---,0.12,VWS V13.01,2013-05-12 23:42:00,
2013-05-12 16:43:00,72.0,55.9,29.62,WSW,238,4.9,4.9,57,0.00,,---,0.12,VWS V13.01,2013-05-12 23:43:00,
2013-05-12 16:44:00,72.0,55.9,29.62,WSW,238,4.9,4.9,57,0.00,,---,0.12,VWS V13.01,2013-05-12 23:44:00,
2013-05-12 16:45:00,72.0,55.9,29.62,WSW,249,2.7,4.9,57,0.00,,---,0.12,VWS V13.01,2013-05-12 23:45:00,
2013-05-12 16:46:00,72.0,55.9,29.62,WSW,249,2.7,2.7,57,0.00,,---,0.12,VWS V13.01,2013-05-12 23:46:00,
2013-05-12 16:48:00,72.0,55.9,29.62,WSW,249,2.7,2.7,57,0.00,,---,0.12,VWS V13.01,2013-05-12 23:48:00,
2013-05-12 16:49:00,72.0,55.9,29.62,WSW,249,2.7,2.7,57,0.00,,---,0.12,VWS V13.01,2013-05-12 23:49:00,
2013-05-12 16:50:00,72.0,55.9,29.62,West,272,3.6,4.0,57,0.00,,---,0.12,VWS V13.01,2013-05-12 23:50:00,
2013-05-12 16:51:00,72.0,55.9,29.62,West,272,3.6,3.6,57,0.00,,---,0.12,VWS V13.01,2013-05-12 23:51:00,
2013-05-12 16:53:00,72.0,55.9,29.62,West,272,3.6,3.6,57,0.00,,---,0.12,VWS V13.01,2013-05-12 23:53:00,
2013-05-12 16:54:00,72.0,55.9,29.62,West,272,3.6,3.6,57,0.00,,---,0.12,VWS V13.01,2013-05-12 23:54:00,
2013-05-12 16:55:00,72.0,55.9,29.62,East,88,0.0,0.0,57,0.00,,---,0.12,VWS V13.01,2013-05-12 23:55:00,
2013-05-12 16:56:00,72.0,55.9,29.62,East,88,0.0,0.0,57,0.00,,---,0.12,VWS V13.01,2013-05-12 23:56:00,
2013-05-12 16:58:00,71.6,55.1,29.62,SW,223,5.8,5.8,56,0.00,,---,0.12,VWS V13.01,2013-05-12 23:58:00,
2013-05-12 16:59:00,71.6,55.1,29.62,WSW,251,2.7,2.7,56,0.00,,---,0.12,VWS V13.01,2013-05-12 23:59:00,
2013-05-12 17:00:00,71.6,55.1,29.62,WSW,237,2.7,2.7,56,0.00,,---,0.12,VWS V13.01,2013-05-13 00:00:00,
2013-05-12 17:01:00,71.6,55.1,29.62,WSW,237,2.7,2.7,56,0.00,,---,0.12,VWS V13.01,2013-05-13 00:01:00,
2013-05-12 17:03:00,71.6,55.1,29.59,WSW,255,0.0,2.7,56,0.00,,---,0.12,VWS V13.01,2013-05-13 00:03:00,
2013-05-12 17:04:00,71.6,55.1,29.59,WSW,255,0.0,0.0,56,0.00,,---,0.12,VWS V13.01,2013-05-13 00:04:00,
2013-05-12 17:05:00,71.6,55.1,29.59,WSW,255,0.0,0.0,56,0.00,,---,0.12,VWS V13.01,2013-05-13 00:05:00,
2013-05-12 17:06:00,71.6,55.1,29.59,WSW,255,0.0,0.0,56,0.00,,---,0.12,VWS V13.01,2013-05-13 00:06:00,
2013-05-12 17:08:00,71.6,55.1,29.59,WSW,255,0.0,0.0,56,0.00,,---,0.12,VWS V13.01,2013-05-13 00:08:00,
2013-05-12 17:09:00,71.6,55.1,29.59,South,187,4.0,4.0,56,0.00,,---,0.12,VWS V13.01,2013-05-13 00:09:00,
2013-05-12 17:10:00,71.6,55.1,29.59,South,187,4.0,4.0,56,0.00,,---,0.12,VWS V13.01,2013-05-13 00:10:00,
2013-05-12 17:11:00,71.6,55.1,29.59,South,187,4.0,4.0,56,0.00,,---,0.12,VWS V13.01,2013-05-13 00:11:00,
2013-05-12 17:13:00,71.6,54.6,29.59,West,260,3.6,3.6,55,0.00,,---,0.12,VWS V13.01,2013-05-13 00:13:00,
2013-05-12 17:14:00,71.6,54.6,29.59,West,260,3.6,3.6,55,0.00,,---,0.12,VWS V13.01,2013-05-13 00:14:00,
2013-05-12 17:15:00,71.2,54.3,29.59,West,260,3.6,3.6,55,0.00,,---,0.12,VWS V13.01,2013-05-13 00:15:00,
2013-05-12 17:16:00,71.2,54.3,29.59,West,275,3.1,3.1,55,0.00,,---,0.12,VWS V13.01,2013-05-13 00:16:00,
2013-05-12 17:17:00,71.2,54.3,29.59,West,275,3.1,3.1,55,0.00,,---,0.12,VWS V13.01,2013-05-13 00:17:00,
2013-05-12 17:19:00,71.2,54.3,29.62,West,276,4.9,4.9,55,0.00,,---,0.12,VWS V13.01,2013-05-13 00:19:00,
2013-05-12 17:20:00,71.2,54.3,29.62,West,276,4.9,4.9,55,0.00,,---,0.12,VWS V13.01,2013-05-13 00:20:00,
2013-05-12 17:21:00,71.2,54.3,29.62,West,276,4.9,4.9,55,0.00,,---,0.12,VWS V13.01,2013-05-13 00:21:00,
2013-05-12 17:22:00,71.2,54.3,29.62,West,276,4.9,4.9,55,0.00,,---,0.12,VWS V13.01,2013-05-13 00:22:00,
2013-05-12 17:24:00,71.1,54.6,29.62,West,276,4.9,4.9,56,0.00,,---,0.12,VWS V13.01,2013-05-13 00:24:00,
2013-05-12 17:25:00,71.1,54.6,29.62,West,261,4.0,4.0,56,0.00,,---,0.12,VWS V13.01,2013-05-13 00:25:00,
2013-05-12 17:26:00,71.1,54.6,29.62,West,277,2.7,4.0,56,0.00,,---,0.12,VWS V13.01,2013-05-13 00:26:00,
2013-05-12 17:27:00,71.1,54.6,29.62,West,264,2.7,2.7,56,0.00,,---,0.12,VWS V13.01,2013-05-13 00:27:00,
2013-05-12 17:29:00,71.1,54.6,29.62,West,264,2.7,2.7,56,0.00,,---,0.12,VWS V13.01,2013-05-13 00:29:00,
2013-05-12 17:30:00,71.1,54.6,29.62,SW,233,3.1,3.1,56,0.00,,---,0.12,VWS V13.01,2013-05-13 00:30:00,
2013-05-12 17:32:00,71.1,54.6,29.59,SW,233,3.1,3.1,56,0.00,,---,0.12,VWS V13.01,2013-05-13 00:32:00,
2013-05-12 17:34:00,70.7,54.2,29.59,SW,233,3.1,3.1,56,0.00,,---,0.12,VWS V13.01,2013-05-13 00:34:00,
2013-05-12 17:35:00,70.7,54.2,29.59,SW,233,3.1,3.1,56,0.00,,---,0.12,VWS V13.01,2013-05-13 00:35:00,
2013-05-12 17:36:00,70.7,54.2,29.59,West,270,4.0,4.0,56,0.00,,---,0.12,VWS V13.01,2013-05-13 00:36:00,
2013-05-12 17:37:00,70.5,54.1,29.59,West,270,4.0,4.0,56,0.00,,---,0.12,VWS V13.01,2013-05-13 00:37:00,
2013-05-12 17:39:00,70.5,54.1,29.59,WSW,248,4.0,4.0,56,0.00,,---,0.12,VWS V13.01,2013-05-13 00:39:00,
2013-05-12 17:40:00,70.5,54.1,29.59,WSW,248,4.0,4.0,56,0.00,,---,0.12,VWS V13.01,2013-05-13 00:40:00,
2013-05-12 17:41:00,70.5,54.1,29.59,WSW,248,4.0,4.0,56,0.00,,---,0.12,VWS V13.01,2013-05-13 00:41:00,
2013-05-12 17:42:00,70.5,54.1,29.59,WSW,248,4.0,4.0,56,0.00,,---,0.12,VWS V13.01,2013-05-13 00:42:00,
2013-05-12 17:44:00,70.3,53.9,29.59,WNW,287,4.9,4.9,56,0.00,,---,0.12,VWS V13.01,2013-05-13 00:44:00,
2013-05-12 17:45:00,70.3,53.9,29.59,SW,221,3.6,3.6,56,0.00,,---,0.12,VWS V13.01,2013-05-13 00:45:00,
2013-05-12 17:46:00,70.3,53.9,29.59,SW,221,3.6,3.6,56,0.00,,---,0.12,VWS V13.01,2013-05-13 00:46:00,
2013-05-12 17:47:00,70.3,53.9,29.59,SW,221,3.6,3.6,56,0.00,,---,0.12,VWS V13.01,2013-05-13 00:47:00,
2013-05-12 17:49:00,70.3,53.9,29.59,South,182,3.6,3.6,56,0.00,,---,0.12,VWS V13.01,2013-05-13 00:49:00,
2013-05-12 17:50:00,70.3,53.9,29.59,South,182,3.6,3.6,56,0.00,,---,0.12,VWS V13.01,2013-05-13 00:50:00,
2013-05-12 17:51:00,70.0,53.6,29.59,South,182,3.6,3.6,56,0.00,,---,0.12,VWS V13.01,2013-05-13 00:51:00,
2013-05-12 17:52:00,70.0,53.6,29.59,WSW,243,4.0,4.0,56,0.00,,---,0.12,VWS V13.01,2013-05-13 00:52:00,
2013-05-12 17:55:00,70.0,53.6,29.59,West,262,3.6,3.6,56,0.00,,---,0.12,VWS V13.01,2013-05-13 00:55:00,
2013-05-12 17:56:00,70.0,53.6,29.59,WSW,252,3.6,3.6,56,0.00,,---,0.12,VWS V13.01,2013-05-13 00:56:00,
2013-05-12 17:57:00,70.0,53.6,29.59,WSW,252,3.6,3.6,56,0.00,,---,0.12,VWS V13.01,2013-05-13 00:57:00,
2013-05-12 18:00:00,70.0,53.6,29.59,West,271,0.0,0.0,56,0.00,,---,0.12,VWS V13.01,2013-05-13 01:00:00,
2013-05-12 18:01:00,69.6,53.7,29.59,West,271,0.0,0.0,57,0.00,,---,0.12,VWS V13.01,2013-05-13 01:01:00,
2013-05-12 18:02:00,69.6,53.7,29.59,SSW,204,3.6,3.6,57,0.00,,---,0.12,VWS V13.01,2013-05-13 01:02:00,
2013-05-12 18:03:00,69.6,53.7,29.59,WSW,258,3.1,3.6,57,0.00,,---,0.12,VWS V13.01,2013-05-13 01:03:00,
2013-05-12 18:05:00,69.6,53.7,29.59,West,273,2.7,2.7,57,0.00,,---,0.12,VWS V13.01,2013-05-13 01:05:00,
2013-05-12 18:07:00,69.6,53.7,29.59,West,273,2.7,2.7,57,0.00,,---,0.12,VWS V13.01,2013-05-13 01:07:00,
2013-05-12 18:08:00,69.6,53.7,29.59,West,273,2.7,2.7,57,0.00,,---,0.12,VWS V13.01,2013-05-13 01:08:00,
2013-05-12 18:10:00,69.4,54.0,29.59,West,280,3.6,3.6,58,0.00,,---,0.12,VWS V13.01,2013-05-13 01:10:00,
2013-05-12 18:12:00,69.4,54.0,29.59,WSW,240,2.7,2.7,58,0.00,,---,0.12,VWS V13.01,2013-05-13 01:12:00,
2013-05-12 18:13:00,69.4,54.0,29.59,WSW,240,2.7,2.7,58,0.00,,---,0.12,VWS V13.01,2013-05-13 01:13:00,
2013-05-12 18:15:00,69.6,54.2,29.59,WSW,240,2.7,2.7,58,0.00,,---,0.12,VWS V13.01,2013-05-13 01:15:00,
2013-05-12 18:16:00,69.6,54.2,29.59,WSW,240,2.7,2.7,58,0.00,,---,0.12,VWS V13.01,2013-05-13 01:16:00,
2013-05-12 18:17:00,69.6,54.2,29.59,WSW,240,2.7,2.7,58,0.00,,---,0.12,VWS V13.01,2013-05-13 01:17:00,
2013-05-12 18:18:00,69.6,54.2,29.59,West,280,2.7,2.7,58,0.00,,---,0.12,VWS V13.01,2013-05-13 01:18:00,
2013-05-12 18:21:00,69.3,53.9,29.59,West,280,2.7,2.7,58,0.00,,---,0.12,VWS V13.01,2013-05-13 01:21:00,
2013-05-12 18:22:00,69.3,53.9,29.59,NW,311,2.2,2.2,58,0.00,,---,0.12,VWS V13.01,2013-05-13 01:22:00,
2013-05-12 18:23:00,69.3,53.9,29.59,WSW,251,5.4,5.4,58,0.00,,---,0.12,VWS V13.01,2013-05-13 01:23:00,
2013-05-12 18:26:00,68.7,53.8,29.59,WSW,251,5.4,5.4,59,0.00,,---,0.12,VWS V13.01,2013-05-13 01:26:00,
2013-05-12 18:28:00,68.7,53.8,29.59,WSW,251,5.4,5.4,59,0.00,,---,0.12,VWS V13.01,2013-05-13 01:28:00,
2013-05-12 18:29:00,68.7,53.8,29.59,WSW,251,5.4,5.4,59,0.00,,---,0.12,VWS V13.01,2013-05-13 01:29:00,
2013-05-12 18:31:00,68.7,53.8,29.59,West,274,8.1,8.1,59,0.00,,---,0.12,VWS V13.01,2013-05-13 01:31:00,
2013-05-12 18:33:00,68.7,53.8,29.59,WSW,252,4.0,6.3,59,0.00,,---,0.12,VWS V13.01,2013-05-13 01:33:00,
2013-05-12 18:34:00,68.7,53.8,29.59,WSW,252,4.0,4.0,59,0.00,,---,0.12,VWS V13.01,2013-05-13 01:34:00,
2013-05-12 18:36:00,68.7,53.8,29.59,West,259,3.6,3.6,59,0.00,,---,0.12,VWS V13.01,2013-05-13 01:36:00,
2013-05-12 18:38:00,68.4,54.0,29.59,West,259,3.6,3.6,60,0.00,,---,0.12,VWS V13.01,2013-05-13 01:38:00,
2013-05-12 18:39:00,68.4,54.0,29.59,West,268,5.4,5.4,60,0.00,,---,0.12,VWS V13.01,2013-05-13 01:39:00,
2013-05-12 18:41:00,68.4,54.0,29.59,West,268,5.4,5.4,60,0.00,,---,0.12,VWS V13.01,2013-05-13 01:41:00,
2013-05-12 18:43:00,68.4,54.0,29.59,West,268,5.4,5.4,60,0.00,,---,0.12,VWS V13.01,2013-05-13 01:43:00,
2013-05-12 18:44:00,68.2,54.2,29.59,West,268,5.4,5.4,61,0.00,,---,0.12,VWS V13.01,2013-05-13 01:44:00,
2013-05-12 18:46:00,68.2,54.2,29.59,WSW,249,3.1,3.1,61,0.00,,---,0.12,VWS V13.01,2013-05-13 01:46:00,
2013-05-12 18:47:00,68.2,54.2,29.59,WSW,249,3.1,3.1,61,0.00,,---,0.12,VWS V13.01,2013-05-13 01:47:00,
2013-05-12 18:48:00,68.2,54.2,29.59,WSW,249,3.1,3.1,61,0.00,,---,0.12,VWS V13.01,2013-05-13 01:48:00,
2013-05-12 18:49:00,68.2,54.2,29.59,SW,234,5.8,5.8,61,0.00,,---,0.12,VWS V13.01,2013-05-13 01:49:00,
2013-05-12 18:51:00,68.0,54.5,29.59,SW,234,5.8,5.8,62,0.00,,---,0.12,VWS V13.01,2013-05-13 01:51:00,
2013-05-12 18:52:00,68.0,54.5,29.59,SW,234,5.8,5.8,62,0.00,,---,0.12,VWS V13.01,2013-05-13 01:52:00,
2013-05-12 18:53:00,68.0,54.5,29.59,SW,234,5.8,5.8,62,0.00,,---,0.12,VWS V13.01,2013-05-13 01:53:00,
2013-05-12 18:55:00,68.0,54.5,29.59,WNW,303,5.8,5.8,62,0.00,,---,0.12,VWS V13.01,2013-05-13 01:55:00,
2013-05-12 18:56:00,67.6,54.6,29.59,WNW,303,5.8,5.8,63,0.00,,---,0.12,VWS V13.01,2013-05-13 01:56:00,
2013-05-12 18:57:00,67.6,54.6,29.59,WNW,303,5.8,5.8,63,0.00,,---,0.12,VWS V13.01,2013-05-13 01:57:00,
2013-05-12 18:58:00,67.6,54.6,29.59,WNW,286,6.3,6.3,63,0.00,,---,0.12,VWS V13.01,2013-05-13 01:58:00,
2013-05-12 19:00:00,67.6,54.6,29.59,WNW,286,6.3,6.3,63,0.00,,---,0.12,VWS V13.01,2013-05-13 02:00:00,
2013-05-12 19:01:00,67.6,54.6,29.59,WNW,286,6.3,6.3,63,0.00,,---,0.12,VWS V13.01,2013-05-13 02:01:00,
2013-05-12 19:02:00,67.6,54.6,29.59,WSW,250,3.1,6.3,63,0.00,,---,0.12,VWS V13.01,2013-05-13 02:02:00,
2013-05-12 19:03:00,67.6,54.6,29.59,WSW,250,3.1,3.1,63,0.00,,---,0.12,VWS V13.01,2013-05-13 02:03:00,
2013-05-12 19:05:00,67.3,54.3,29.59,WSW,250,3.1,3.1,63,0.00,,---,0.12,VWS V13.01,2013-05-13 02:05:00,
2013-05-12 19:06:00,67.3,54.3,29.59,WSW,242,2.7,5.4,63,0.00,,---,0.12,VWS V13.01,2013-05-13 02:06:00,
2013-05-12 19:07:00,67.3,54.3,29.59,WSW,242,2.7,2.7,63,0.00,,---,0.12,VWS V13.01,2013-05-13 02:07:00,
2013-05-12 19:08:00,67.3,54.3,29.59,WNW,297,3.1,3.1,63,0.00,,---,0.12,VWS V13.01,2013-05-13 02:08:00,
2013-05-12 19:09:00,67.3,54.3,29.59,WNW,297,3.1,3.1,63,0.00,,---,0.12,VWS V13.01,2013-05-13 02:09:00,
2013-05-12 19:10:00,67.3,54.3,29.59,WNW,297,3.1,3.1,63,0.00,,---,0.12,VWS V13.01,2013-05-13 02:10:00,
2013-05-12 19:11:00,67.3,54.3,29.59,WSW,253,5.8,5.8,63,0.00,,---,0.12,VWS V13.01,2013-05-13 02:11:00,
2013-05-12 19:12:00,67.3,54.3,29.59,WSW,253,5.8,5.8,63,0.00,,---,0.12,VWS V13.01,2013-05-13 02:12:00,
2013-05-12 19:14:00,67.1,55.0,29.59,WSW,253,5.8,5.8,65,0.00,,---,0.12,VWS V13.01,2013-05-13 02:14:00,
2013-05-12 19:15:00,67.1,55.0,29.59,WSW,253,5.8,5.8,65,0.00,,---,0.12,VWS V13.01,2013-05-13 02:15:00,
2013-05-12 19:17:00,67.1,55.0,29.59,West,269,3.1,3.1,65,0.00,,---,0.12,VWS V13.01,2013-05-13 02:17:00,
2013-05-12 19:19:00,67.1,55.0,29.59,West,269,3.1,3.1,65,0.00,,---,0.12,VWS V13.01,2013-05-13 02:19:00,
2013-05-12 19:20:00,67.1,55.0,29.59,West,269,3.1,3.1,65,0.00,,---,0.12,VWS V13.01,2013-05-13 02:20:00,
2013-05-12 19:22:00,67.1,55.0,29.59,West,269,3.1,3.1,65,0.00,,---,0.12,VWS V13.01,2013-05-13 02:22:00,
2013-05-12 19:24:00,66.7,55.0,29.59,West,269,3.1,3.1,66,0.00,,---,0.12,VWS V13.01,2013-05-13 02:24:00,
2013-05-12 19:25:00,66.7,55.0,29.59,West,278,4.9,4.9,66,0.00,,---,0.12,VWS V13.01,2013-05-13 02:25:00,
2013-05-12 19:27:00,66.7,55.0,29.59,West,278,4.9,4.9,66,0.00,,---,0.12,VWS V13.01,2013-05-13 02:27:00,
2013-05-12 19:28:00,66.7,55.0,29.59,WSW,252,3.1,4.9,66,0.00,,---,0.12,VWS V13.01,2013-05-13 02:28:00,
2013-05-12 19:29:00,66.7,55.0,29.59,WNW,290,5.4,5.4,66,0.00,,---,0.12,VWS V13.01,2013-05-13 02:29:00,
2013-05-12 19:30:00,66.7,55.0,29.59,WNW,290,5.4,5.4,66,0.00,,---,0.12,VWS V13.01,2013-05-13 02:30:00,
2013-05-12 19:32:00,66.4,55.1,29.59,WNW,290,5.4,5.4,67,0.00,,---,0.12,VWS V13.01,2013-05-13 02:32:00,
2013-05-12 19:33:00,66.4,55.1,29.59,WNW,290,5.4,5.4,67,0.00,,---,0.12,VWS V13.01,2013-05-13 02:33:00,
2013-05-12 19:34:00,66.4,55.1,29.59,WSW,245,3.1,5.4,67,0.00,,---,0.12,VWS V13.01,2013-05-13 02:34:00,
2013-05-12 19:35:00,66.4,55.1,29.59,WSW,245,3.1,3.1,67,0.00,,---,0.12,VWS V13.01,2013-05-13 02:35:00,
2013-05-12 19:37:00,66.4,55.1,29.59,WSW,245,3.1,3.1,67,0.00,,---,0.12,VWS V13.01,2013-05-13 02:37:00,
2013-05-12 19:38:00,66.4,55.1,29.59,WSW,239,3.6,3.6,67,0.00,,---,0.12,VWS V13.01,2013-05-13 02:38:00,
2013-05-12 19:39:00,66.4,55.1,29.59,WNW,288,4.0,4.0,67,0.00,,---,0.12,VWS V13.01,2013-05-13 02:39:00,
2013-05-12 19:40:00,65.8,55.4,29.59,WNW,288,4.0,4.0,69,0.00,,---,0.12,VWS V13.01,2013-05-13 02:40:00,
2013-05-12 19:42:00,65.8,55.4,29.59,SSE,156,7.6,7.6,69,0.00,,---,0.12,VWS V13.01,2013-05-13 02:42:00,
2013-05-12 19:43:00,65.8,55.4,29.59,NNW,341,4.9,7.6,69,0.00,,---,0.12,VWS V13.01,2013-05-13 02:43:00,
2013-05-12 19:44:00,65.8,55.4,29.59,West,273,4.0,4.0,69,0.00,,---,0.12,VWS V13.01,2013-05-13 02:44:00,
2013-05-12 19:46:00,65.5,55.5,29.59,West,273,4.0,4.0,70,0.00,,---,0.12,VWS V13.01,2013-05-13 02:46:00,
2013-05-12 19:47:00,65.5,55.5,29.59,West,273,4.0,4.0,70,0.00,,---,0.12,VWS V13.01,2013-05-13 02:47:00,
2013-05-12 19:48:00,65.5,55.5,29.59,West,273,4.0,4.0,70,0.00,,---,0.12,VWS V13.01,2013-05-13 02:48:00,
2013-05-12 19:50:00,65.5,55.5,29.59,West,273,4.0,4.0,70,0.00,,---,0.12,VWS V13.01,2013-05-13 02:50:00,
2013-05-12 19:51:00,65.5,55.5,29.59,West,273,4.0,4.0,70,0.00,,---,0.12,VWS V13.01,2013-05-13 02:51:00,
2013-05-12 19:52:00,65.5,55.5,29.59,WSW,255,5.4,6.3,70,0.00,,---,0.12,VWS V13.01,2013-05-13 02:52:00,
2013-05-12 19:53:00,65.5,55.5,29.59,WSW,255,5.4,5.4,70,0.00,,---,0.12,VWS V13.01,2013-05-13 02:53:00,
2013-05-12 19:55:00,65.5,55.5,29.59,WSW,255,5.4,5.4,70,0.00,,---,0.12,VWS V13.01,2013-05-13 02:55:00,
2013-05-12 19:56:00,65.5,55.5,29.59,WNW,285,4.0,4.0,70,0.00,,---,0.12,VWS V13.01,2013-05-13 02:56:00,
2013-05-12 19:58:00,65.5,55.5,29.59,WNW,285,4.0,4.0,70,0.00,,---,0.12,VWS V13.01,2013-05-13 02:58:00,
2013-05-12 20:00:00,64.6,56.1,29.59,WNW,285,4.0,4.0,74,0.00,,---,0.12,VWS V13.01,2013-05-13 03:00:00,
2013-05-12 20:01:00,64.6,56.1,29.59,West,280,3.1,3.1,74,0.00,,---,0.16,VWS V13.01,2013-05-13 03:01:00,
2013-05-12 20:03:00,64.6,56.1,29.59,West,280,3.1,3.1,74,0.04,,---,0.16,VWS V13.01,2013-05-13 03:03:00,
2013-05-12 20:05:00,64.6,56.1,29.59,WSW,252,2.2,2.2,74,0.04,,---,0.16,VWS V13.01,2013-05-13 03:05:00,
2013-05-12 20:06:00,64.6,56.1,29.59,WSW,252,2.2,2.2,74,0.04,,---,0.16,VWS V13.01,2013-05-13 03:06:00,
2013-05-12 20:08:00,63.5,56.9,29.59,WSW,252,2.2,2.2,79,0.04,,---,0.16,VWS V13.01,2013-05-13 03:08:00,
2013-05-12 20:10:00,63.5,56.9,29.59,West,264,0.0,3.1,79,0.04,,---,0.16,VWS V13.01,2013-05-13 03:10:00,
2013-05-12 20:12:00,63.5,56.9,29.59,West,264,0.0,0.0,79,0.04,,---,0.16,VWS V13.01,2013-05-13 03:12:00,
2013-05-12 20:13:00,63.5,56.9,29.59,West,264,0.0,0.0,79,0.04,,---,0.16,VWS V13.01,2013-05-13 03:13:00,
2013-05-12 20:14:00,63.5,56.9,29.59,West,264,0.0,0.0,79,0.04,,---,0.16,VWS V13.01,2013-05-13 03:14:00,
2013-05-12 20:15:00,63.5,56.9,29.59,West,264,0.0,0.0,79,0.04,,---,0.16,VWS V13.01,2013-05-13 03:15:00,
2013-05-12 20:17:00,64.4,57.8,29.59,West,264,0.0,0.0,79,0.04,,---,0.16,VWS V13.01,2013-05-13 03:17:00,
2013-05-12 20:18:00,64.4,57.8,29.59,West,265,0.0,0.0,79,0.04,,---,0.16,VWS V13.01,2013-05-13 03:18:00,
2013-05-12 20:19:00,64.4,57.8,29.59,West,265,0.0,0.0,79,0.04,,---,0.16,VWS V13.01,2013-05-13 03:19:00,
2013-05-12 20:20:00,64.4,57.8,29.59,WSW,243,5.4,5.4,79,0.04,,---,0.16,VWS V13.01,2013-05-13 03:20:00,
2013-05-12 20:22:00,64.4,57.8,29.59,East,96,0.0,5.4,79,0.04,,---,0.16,VWS V13.01,2013-05-13 03:22:00,
2013-05-12 20:23:00,64.4,57.8,29.59,East,96,0.0,0.0,79,0.04,,---,0.16,VWS V13.01,2013-05-13 03:23:00,
2013-05-12 20:24:00,64.4,57.8,29.59,East,96,0.0,0.0,79,0.04,,---,0.16,VWS V13.01,2013-05-13 03:24:00,
2013-05-12 20:25:00,64.4,57.8,29.59,East,96,0.0,0.0,79,0.04,,---,0.16,VWS V13.01,2013-05-13 03:25:00,
2013-05-12 20:26:00,63.1,57.2,29.59,East,96,0.0,0.0,81,0.04,,---,0.16,VWS V13.01,2013-05-13 03:26:00,
2013-05-12 20:27:00,63.1,57.2,29.59,East,96,0.0,0.0,81,0.04,,---,0.16,VWS V13.01,2013-05-13 03:27:00,
2013-05-12 20:28:00,63.1,57.2,29.59,WSW,252,3.6,3.6,81,0.04,,---,0.16,VWS V13.01,2013-05-13 03:28:00,
2013-05-12 20:29:00,63.1,57.6,29.59,WSW,252,3.6,3.6,82,0.04,,---,0.16,VWS V13.01,2013-05-13 03:29:00,
2013-05-12 20:30:00,63.1,57.6,29.59,WSW,252,3.6,3.6,82,0.04,,---,0.16,VWS V13.01,2013-05-13 03:30:00,
2013-05-12 20:31:00,63.1,57.6,29.59,WSW,252,3.6,3.6,82,0.04,,---,0.16,VWS V13.01,2013-05-13 03:31:00,
2013-05-12 20:33:00,63.1,57.6,29.59,West,272,0.0,0.0,82,0.04,,---,0.16,VWS V13.01,2013-05-13 03:33:00,
2013-05-12 20:35:00,63.1,57.6,29.59,West,264,4.0,4.0,82,0.04,,---,0.16,VWS V13.01,2013-05-13 03:35:00,
2013-05-12 20:36:00,63.0,57.4,29.59,West,265,5.8,5.8,82,0.04,,---,0.16,VWS V13.01,2013-05-13 03:36:00,
2013-05-12 20:38:00,63.0,57.4,29.59,SSW,208,3.6,5.8,82,0.04,,---,0.16,VWS V13.01,2013-05-13 03:38:00,
2013-05-12 20:40:00,63.0,57.4,29.59,SSW,208,3.6,3.6,82,0.04,,---,0.16,VWS V13.01,2013-05-13 03:40:00,
2013-05-12 20:41:00,63.0,57.4,29.59,SSW,208,3.6,3.6,82,0.04,,---,0.16,VWS V13.01,2013-05-13 03:41:00,
2013-05-12 20:43:00,63.0,57.4,29.59,WNW,292,3.6,3.6,82,0.04,,---,0.16,VWS V13.01,2013-05-13 03:43:00,
2013-05-12 20:44:00,63.0,57.4,29.59,WNW,292,3.6,3.6,82,0.04,,---,0.16,VWS V13.01,2013-05-13 03:44:00,
2013-05-12 20:45:00,62.2,57.3,29.59,WNW,291,2.2,2.2,84,0.04,,---,0.16,VWS V13.01,2013-05-13 03:45:00,
2013-05-12 20:46:00,62.2,57.3,29.59,WNW,291,2.2,2.2,84,0.04,,---,0.16,VWS V13.01,2013-05-13 03:46:00,
2013-05-12 20:48:00,62.2,57.3,29.59,West,269,2.7,2.7,84,0.04,,---,0.16,VWS V13.01,2013-05-13 03:48:00,
2013-05-12 20:49:00,62.2,57.3,29.59,WNW,293,4.0,4.0,84,0.08,,---,0.20,VWS V13.01,2013-05-13 03:49:00,
2013-05-12 20:51:00,62.2,57.3,29.59,WNW,293,2.7,4.0,84,0.08,,---,0.20,VWS V13.01,2013-05-13 03:51:00,
2013-05-12 20:53:00,62.1,57.5,29.59,WNW,293,2.7,2.7,85,0.08,,---,0.20,VWS V13.01,2013-05-13 03:53:00,
2013-05-12 20:54:00,62.1,57.5,29.59,WNW,293,2.7,2.7,85,0.08,,---,0.20,VWS V13.01,2013-05-13 03:54:00,
2013-05-12 20:56:00,62.1,57.5,29.59,WSW,241,2.7,2.7,85,0.08,,---,0.20,VWS V13.01,2013-05-13 03:56:00,
2013-05-12 20:58:00,62.1,57.5,29.59,WSW,244,2.2,2.2,85,0.08,,---,0.20,VWS V13.01,2013-05-13 03:58:00,
2013-05-12 20:59:00,62.1,57.5,29.59,West,273,3.1,3.1,85,0.08,,---,0.20,VWS V13.01,2013-05-13 03:59:00,
2013-05-12 21:01:00,62.1,57.5,29.59,West,273,3.1,3.1,85,0.08,,---,0.20,VWS V13.01,2013-05-13 04:01:00,
2013-05-12 21:06:00,61.7,57.2,29.59,SW,215,4.0,4.0,85,0.04,,---,0.20,VWS V13.01,2013-05-13 04:06:00,
2013-05-12 21:11:00,61.7,57.2,29.59,WSW,257,2.7,2.7,85,0.04,,---,0.20,VWS V13.01,2013-05-13 04:11:00,
2013-05-12 21:16:00,61.7,57.2,29.59,WNW,298,3.1,3.1,85,0.08,,---,0.24,VWS V13.01,2013-05-13 04:16:00,
2013-05-12 21:21:00,61.5,57.3,29.59,SSW,211,0.0,0.0,86,0.08,,---,0.24,VWS V13.01,2013-05-13 04:21:00,
2013-05-12 21:26:00,61.5,57.3,29.59,NW,308,3.6,3.6,86,0.08,,---,0.24,VWS V13.01,2013-05-13 04:26:00,
2013-05-12 21:31:00,61.3,57.1,29.59,NW,308,0.0,0.0,86,0.08,,---,0.24,VWS V13.01,2013-05-13 04:31:00,
2013-05-12 21:32:00,61.3,57.1,29.62,NW,308,0.0,0.0,86,0.08,,---,0.24,VWS V13.01,2013-05-13 04:32:00,
2013-05-12 21:36:00,61.3,57.1,29.62,West,264,0.0,0.0,86,0.08,,---,0.24,VWS V13.01,2013-05-13 04:36:00,
2013-05-12 21:37:00,61.3,57.1,29.62,West,264,0.0,0.0,86,0.08,,---,0.24,VWS V13.01,2013-05-13 04:37:00,
2013-05-12 21:41:00,60.8,56.6,29.62,West,274,8.1,8.1,86,0.08,,---,0.24,VWS V13.01,2013-05-13 04:41:00,
2013-05-12 21:42:00,60.8,56.6,29.62,West,274,8.1,8.1,86,0.08,,---,0.24,VWS V13.01,2013-05-13 04:42:00,
2013-05-12 21:46:00,60.6,56.7,29.62,SW,225,3.1,3.1,87,0.08,,---,0.24,VWS V13.01,2013-05-13 04:46:00,
2013-05-12 21:47:00,60.6,56.7,29.62,SW,225,3.1,3.1,87,0.08,,---,0.24,VWS V13.01,2013-05-13 04:47:00,
2013-05-12 21:51:00,60.6,56.7,29.62,SSE,168,4.9,4.9,87,0.04,,---,0.24,VWS V13.01,2013-05-13 04:51:00,
2013-05-12 21:52:00,60.6,56.7,29.62,SSE,168,4.9,4.9,87,0.04,,---,0.24,VWS V13.01,2013-05-13 04:52:00,
2013-05-12 21:57:00,60.3,56.7,29.62,SSW,200,4.9,4.9,88,0.04,,---,0.24,VWS V13.01,2013-05-13 04:57:00,
2013-05-12 22:02:00,60.3,56.7,29.62,SW,217,5.4,5.4,88,0.04,,---,0.24,VWS V13.01,2013-05-13 05:02:00,
2013-05-12 22:07:00,60.1,56.5,29.62,SW,235,3.1,3.1,88,0.04,,---,0.24,VWS V13.01,2013-05-13 05:07:00,
2013-05-12 22:12:00,60.1,56.5,29.62,SW,230,0.0,0.0,88,0.08,,---,0.28,VWS V13.01,2013-05-13 05:12:00,
2013-05-12 22:17:00,59.7,56.2,29.62,WSW,238,0.0,0.0,88,0.04,,---,0.28,VWS V13.01,2013-05-13 05:17:00,
2013-05-12 22:18:00,59.7,56.2,29.62,WSW,251,3.1,3.1,88,0.04,,---,0.28,VWS V13.01,2013-05-13 05:18:00,
2013-05-12 22:22:00,59.7,56.5,29.62,West,276,4.5,4.5,89,0.04,,---,0.28,VWS V13.01,2013-05-13 05:22:00,
2013-05-12 22:23:00,59.7,56.5,29.62,West,276,4.5,4.5,89,0.04,,---,0.28,VWS V13.01,2013-05-13 05:23:00,
2013-05-12 22:27:00,59.5,56.3,29.62,SSW,203,3.6,3.6,89,0.04,,---,0.28,VWS V13.01,2013-05-13 05:27:00,
2013-05-12 22:28:00,59.5,56.3,29.62,SSW,203,3.6,3.6,89,0.04,,---,0.28,VWS V13.01,2013-05-13 05:28:00,
2013-05-12 22:32:00,59.5,56.3,29.62,West,279,3.1,3.1,89,0.04,,---,0.28,VWS V13.01,2013-05-13 05:32:00,
2013-05-12 22:33:00,59.5,56.3,29.62,West,279,3.1,3.1,89,0.04,,---,0.28,VWS V13.01,2013-05-13 05:33:00,
2013-05-12 22:37:00,59.5,56.3,29.62,WSW,243,3.6,3.6,89,0.04,,---,0.28,VWS V13.01,2013-05-13 05:37:00,
2013-05-12 22:38:00,59.5,56.3,29.62,WSW,243,3.6,3.6,89,0.04,,---,0.28,VWS V13.01,2013-05-13 05:38:00,
2013-05-12 22:43:00,59.5,56.3,29.62,WSW,252,3.1,3.1,89,0.04,,---,0.28,VWS V13.01,2013-05-13 05:43:00,
2013-05-12 22:48:00,59.5,56.3,29.62,West,266,2.2,2.2,89,0.04,,---,0.28,VWS V13.01,2013-05-13 05:48:00,
2013-05-12 22:53:00,59.4,56.4,29.62,West,263,8.3,8.3,90,0.04,,---,0.28,VWS V13.01,2013-05-13 05:53:00,
2013-05-12 22:58:00,59.2,56.2,29.62,SW,235,3.1,5.8,90,0.04,,---,0.28,VWS V13.01,2013-05-13 05:58:00,
2013-05-12 22:59:00,59.2,56.2,29.62,SSW,213,5.8,5.8,90,0.04,,---,0.28,VWS V13.01,2013-05-13 05:59:00,
2013-05-12 23:03:00,59.2,56.2,29.62,WSW,247,5.8,5.8,90,0.04,,---,0.28,VWS V13.01,2013-05-13 06:03:00,
2013-05-12 23:04:00,59.2,56.2,29.62,SW,226,0.0,5.8,90,0.04,,---,0.28,VWS V13.01,2013-05-13 06:04:00,
2013-05-12 23:08:00,59.2,56.2,29.62,WSW,245,7.6,7.6,90,0.04,,---,0.28,VWS V13.01,2013-05-13 06:08:00,
2013-05-12 23:09:00,59.2,56.2,29.62,WSW,245,7.6,7.6,90,0.00,,---,0.28,VWS V13.01,2013-05-13 06:09:00,
2013-05-12 23:13:00,58.8,56.2,29.62,SW,223,3.1,3.1,91,0.00,,---,0.28,VWS V13.01,2013-05-13 06:13:00,
2013-05-12 23:14:00,58.8,56.2,29.62,SW,223,3.1,3.1,91,0.00,,---,0.28,VWS V13.01,2013-05-13 06:14:00,
2013-05-12 23:18:00,58.8,56.2,29.62,West,273,3.1,3.1,91,0.00,,---,0.28,VWS V13.01,2013-05-13 06:18:00,
2013-05-12 23:19:00,58.8,56.2,29.62,West,273,3.1,3.1,91,0.00,,---,0.28,VWS V13.01,2013-05-13 06:19:00,
2013-05-12 23:23:00,59.0,56.1,29.62,WNW,295,3.1,3.1,90,0.00,,---,0.28,VWS V13.01,2013-05-13 06:23:00,
2013-05-12 23:24:00,59.0,56.1,29.62,West,261,5.4,5.4,90,0.00,,---,0.28,VWS V13.01,2013-05-13 06:24:00,
2013-05-12 23:28:00,59.0,56.1,29.62,West,270,5.8,5.8,90,0.00,,---,0.28,VWS V13.01,2013-05-13 06:28:00,
2013-05-12 23:29:00,59.0,56.1,29.62,South,186,3.6,5.8,90,0.00,,---,0.28,VWS V13.01,2013-05-13 06:29:00,
2013-05-12 23:34:00,59.0,56.1,29.62,SSW,204,3.6,3.6,90,0.00,,---,0.28,VWS V13.01,2013-05-13 06:34:00,
2013-05-12 23:39:00,58.8,56.2,29.62,West,263,5.4,5.4,91,0.00,,---,0.28,VWS V13.01,2013-05-13 06:39:00,
2013-05-12 23:40:00,58.8,56.2,29.62,SSW,212,5.8,5.8,91,0.00,,---,0.28,VWS V13.01,2013-05-13 06:40:00,
2013-05-12 23:44:00,58.8,56.2,29.62,SW,217,3.6,3.6,91,0.00,,---,0.28,VWS V13.01,2013-05-13 06:44:00,
2013-05-12 23:45:00,58.8,56.2,29.62,SW,217,3.6,3.6,91,0.00,,---,0.28,VWS V13.01,2013-05-13 06:45:00,
2013-05-12 23:49:00,58.8,56.2,29.62,SSW,203,3.6,3.6,91,0.00,,---,0.28,VWS V13.01,2013-05-13 06:49:00,
2013-05-12 23:50:00,58.8,56.2,29.62,SSW,203,3.6,3.6,91,0.00,,---,0.28,VWS V13.01,2013-05-13 06:50:00,
2013-05-12 23:54:00,58.8,56.2,29.62,SSW,192,2.7,2.7,91,0.00,,---,0.28,VWS V13.01,2013-05-13 06:54:00,
2013-05-12 23:55:00,58.8,56.2,29.62,SSW,209,2.7,2.7,91,0.00,,---,0.28,VWS V13.01,2013-05-13 06:55:00,
2013-05-12 23:59:00,58.8,56.2,29.62,SW,231,2.2,2.2,91,0.00,,---,0.28,VWS V13.01,2013-05-13 06:59:00,